GFSFLT1_sfc_thetae_000.txt.gz
Theta_e
336 338 337 339 342 345 348 350 352 355 359 364 366 365 369 371 369 363 361 362 355 351 347 346 352 357 352 350 348 347 345 340 340
332 337 338 338 341 344 347 350 353 359 363 363 363 363 366 368 369 366 362 364 363 355 356 347 353 353 350 347 348 345 344 339 340
332 337 338 338 340 343 347 349 352 356 359 362 363 363 363 363 365 367 365 365 363 359 357 355 351 350 346 346 345 344 345 341 342
331 335 338 339 340 342 346 348 350 354 357 359 361 361 365 364 362 363 365 364 364 363 358 354 350 350 344 344 343 344 344 343 340
327 335 339 341 342 343 344 347 348 350 354 356 359 363 366 362 362 362 362 363 362 358 354 351 349 346 344 344 343 343 343 340 338
331 336 339 342 343 344 345 346 351 350 353 354 356 360 360 360 360 360 361 358 352 353 349 346 342 342 344 345 345 343 344 343 341
332 337 339 342 343 346 347 350 356 357 353 355 356 357 359 360 359 359 359 356 343 342 343 343 340 343 341 342 344 344 343 342 342
331 336 338 341 343 350 355 355 357 356 355 356 357 358 357 359 362 359 355 350 343 341 341 343 336 337 336 339 343 339 343 341 339
331 336 338 341 345 348 351 352 353 355 356 356 358 359 358 361 362 356 348 348 346 347 345 342 338 337 337 338 338 331 330 337 339
331 336 338 340 344 347 351 352 356 354 356 358 358 358 359 361 358 352 347 347 346 345 343 343 341 340 340 338 341 327 327 331 338
332 337 339 341 342 346 350 351 351 353 354 356 357 358 358 358 355 349 349 347 346 345 342 339 341 341 340 339 340 327 325 330 340
335 339 342 343 344 347 350 348 350 351 351 353 354 355 356 353 352 347 345 345 344 345 343 341 342 343 342 341 342 320 321 329 339
332 338 340 342 342 345 345 346 348 349 349 351 352 354 355 351 350 348 345 346 346 345 345 342 339 340 342 335 343 320 317 325 336
337 340 341 343 343 342 345 347 348 348 349 350 354 356 354 350 351 351 350 349 346 345 343 341 343 341 343 340 335 339 316 316 336
339 339 339 340 342 345 348 350 350 351 351 356 357 356 350 349 350 348 349 347 343 342 342 342 340 343 342 341 343 322 316 313 317
336 336 337 339 343 347 350 353 353 352 358 358 356 350 347 348 348 347 347 345 340 338 340 338 339 339 337 336 340 334 313 311 311
337 340 340 341 342 345 349 352 353 356 354 355 354 349 347 345 347 345 344 343 341 342 340 337 341 338 336 332 334 334 330 324 321
339 341 342 342 343 346 348 351 351 352 352 351 348 346 344 344 343 342 344 336 326 341 331 325 335 334 331 332 334 332 321 320 329
339 342 344 344 345 347 348 349 350 352 350 349 346 341 341 341 341 343 341 336 331 301 302 301 300 299 315 327 307 301 299 297 297
326 335 337 343 343 346 347 348 348 351 352 349 346 344 344 341 336 338 338 337 333 328 310 297 296 296 297 301 301 296 295 295 295

GFSFLT1_sfc_thetae_006.txt.gz
Theta_e
335 337 338 339 342 344 348 350 354 357 361 364 368 367 367 366 365 362 362 364 359 358 354 356 356 358 360 359 352 352 351 348 346
329 336 338 339 343 345 348 350 353 356 362 365 368 368 368 368 366 364 361 364 364 361 360 359 358 357 359 356 353 352 352 344 345
328 330 338 340 341 346 348 351 353 358 360 364 368 368 368 368 368 366 365 363 364 359 360 360 355 357 354 355 351 352 351 346 348
327 329 337 338 341 344 349 352 352 355 357 363 366 368 367 368 367 367 366 367 366 361 363 357 357 354 354 353 351 351 348 346 344
329 330 334 338 342 342 345 348 350 353 356 360 364 366 367 366 367 368 366 364 366 363 364 360 356 356 354 353 347 349 346 343 340
331 337 338 338 341 342 343 345 348 351 355 357 363 365 364 364 365 365 365 365 363 364 363 360 358 355 353 349 346 347 345 344 343
331 339 342 339 340 343 343 345 347 350 352 355 359 361 362 362 363 364 363 365 364 363 363 360 359 355 353 349 346 345 344 344 344
331 336 339 343 345 347 346 346 347 349 350 352 354 358 361 361 365 364 364 364 364 364 364 363 362 355 352 348 344 343 344 344 343
328 330 332 341 344 351 353 348 348 348 348 349 353 355 356 361 364 365 364 363 364 364 365 362 359 351 348 344 341 335 336 343 342
329 330 332 339 346 347 351 352 350 348 348 351 351 355 357 359 363 365 364 364 364 364 362 359 354 349 344 340 343 328 330 336 342
326 331 331 333 330 348 353 354 351 352 352 354 353 361 359 361 365 364 364 363 363 363 358 354 353 348 342 340 342 327 327 332 336
327 327 337 334 332 339 354 354 355 357 354 353 361 358 363 364 369 366 364 362 360 358 353 352 350 347 342 342 343 323 323 327 334
326 326 330 341 342 344 355 357 356 356 357 356 354 361 364 369 369 365 359 357 354 351 353 352 352 345 345 337 345 321 319 326 335
341 331 336 347 355 353 357 359 358 356 357 358 360 367 367 370 368 363 357 352 351 351 352 354 348 341 341 342 343 338 316 317 337
341 341 340 348 360 361 362 362 361 361 361 366 368 366 367 367 361 353 351 350 351 351 349 345 343 343 341 348 348 329 315 315 319
341 341 349 349 355 360 363 365 361 359 363 364 363 363 363 360 355 351 351 352 346 344 348 344 342 341 344 343 344 337 318 313 313
344 347 349 350 351 352 356 359 361 363 363 364 362 360 356 353 351 352 354 351 349 346 344 343 341 344 342 344 342 340 333 327 323
344 346 348 352 353 355 357 362 360 362 364 363 356 352 350 347 347 348 347 331 330 343 324 325 346 348 343 340 339 338 330 330 334
337 339 342 344 351 353 353 357 358 360 361 357 352 348 347 347 345 345 338 330 323 301 303 300 301 303 322 320 308 305 303 301 302
328 337 344 348 350 352 353 353 353 357 358 354 352 348 348 343 341 343 340 337 333 323 309 300 298 298 300 307 302 299 298 297 298

GFSFLT1_sfc_thetae_009.txt.gz
Theta_e
330 329 329 330 336 338 341 342 347 351 354 353 357 357 357 354 355 351 349 351 351 351 350 351 350 351 349 344 341 342 341 337 336
327 329 329 331 334 338 341 342 348 349 355 356 357 359 359 356 356 355 353 351 354 350 348 350 350 351 349 346 341 341 339 336 333
324 327 329 332 334 337 341 343 347 350 354 356 359 358 360 359 357 354 353 351 352 352 347 350 348 351 352 348 342 340 338 334 337
323 327 330 332 335 338 342 344 347 349 353 357 359 360 360 359 359 357 355 355 354 352 351 349 349 349 350 347 343 342 339 334 334
322 323 329 333 335 337 341 343 344 348 355 357 359 361 360 360 360 359 357 354 355 354 351 350 350 350 347 347 344 342 341 336 336
322 322 331 334 334 338 341 343 344 347 352 358 360 361 360 360 359 360 359 356 358 358 352 352 348 346 346 345 344 342 341 337 334
322 322 328 331 334 338 340 343 344 345 350 356 359 361 360 358 358 359 360 359 356 357 357 352 348 347 347 346 344 341 340 338 334
322 324 329 329 334 335 339 341 343 345 348 351 357 358 358 357 359 359 360 359 359 355 355 354 352 347 347 345 342 341 338 338 335
317 325 332 331 333 334 335 338 341 344 346 349 353 355 356 357 357 358 358 358 358 357 355 354 353 349 347 343 342 335 335 338 337
316 319 328 331 331 338 337 339 341 342 346 349 350 352 355 355 355 356 356 357 356 356 355 356 354 349 346 342 339 330 332 336 336
315 320 323 328 335 335 343 341 342 343 345 346 348 348 352 354 355 355 357 356 355 357 357 355 351 347 343 340 338 326 327 331 336
315 320 319 321 327 336 342 344 343 342 342 344 344 345 347 352 353 355 357 356 355 357 356 351 349 345 339 337 337 324 321 326 331
320 320 319 318 328 326 341 342 344 342 341 342 341 343 347 351 353 355 357 356 355 352 350 347 347 343 338 333 337 322 321 324 331
329 329 326 321 327 332 341 344 345 342 342 341 345 345 354 356 359 358 356 351 348 346 345 347 346 343 338 337 337 329 317 317 330
328 335 327 347 338 342 347 346 348 346 343 346 356 359 362 360 355 353 349 345 346 345 345 342 338 337 336 337 338 324 315 316 319
332 337 343 347 350 351 353 352 352 352 355 358 358 360 357 351 349 348 345 343 343 343 339 337 337 335 333 334 336 331 317 313 314
338 340 342 346 349 347 349 353 355 356 356 358 358 354 349 346 345 344 345 343 341 340 339 338 334 334 334 333 333 327 321 316 316
330 339 344 347 348 351 350 353 354 354 356 356 349 347 345 344 345 344 326 314 317 327 312 324 335 336 334 330 331 331 323 320 322
324 325 332 345 347 349 350 352 351 351 350 348 345 342 342 343 342 329 323 319 312 301 301 300 301 308 321 314 308 311 308 306 308
321 323 322 337 343 346 346 349 348 349 348 346 343 342 342 341 335 332 328 324 321 312 305 300 298 298 307 308 303 302 299 298 300

GFSFLT1_sfc_thetae_012.txt.gz
Theta_e
325 325 329 331 332 335 336 338 343 346 347 346 349 350 351 352 350 350 348 343 348 349 350 351 350 351 347 340 338 336 334 332 332
325 325 326 329 333 335 337 338 342 345 348 348 350 351 350 352 352 351 349 347 349 350 349 350 349 350 345 341 339 338 336 332 331
325 326 326 329 331 335 338 339 343 347 350 349 352 353 353 351 351 353 350 348 349 349 348 349 349 348 346 342 338 339 337 333 331
326 327 328 328 330 335 338 340 344 347 349 349 351 353 353 354 353 351 352 350 350 351 348 346 348 347 346 343 339 338 335 333 333
328 329 327 329 330 333 336 339 343 345 350 350 351 354 354 354 354 354 352 350 351 350 349 347 347 347 348 346 342 337 337 332 333
322 321 323 325 330 332 335 339 341 345 349 351 353 354 354 355 354 354 352 351 351 351 350 346 347 346 347 346 343 339 338 335 333
321 323 323 325 329 332 336 339 341 345 347 353 354 355 355 354 355 355 355 354 352 351 352 347 346 346 346 347 345 341 340 337 334
317 322 324 325 329 332 336 339 341 344 348 351 354 354 355 355 356 357 357 355 354 352 354 349 347 344 345 344 344 343 339 338 335
317 318 324 327 330 333 336 339 340 342 346 352 354 354 354 356 357 356 356 357 356 353 352 352 347 344 343 343 345 336 335 338 336
315 318 325 328 331 334 336 339 341 341 345 351 353 354 356 356 355 355 355 356 356 355 352 350 349 345 344 343 343 331 331 335 337
314 316 319 329 332 333 337 340 342 343 344 347 351 352 354 356 355 354 355 355 355 354 355 351 350 347 346 344 343 328 327 332 337
313 315 318 319 328 333 333 337 341 342 343 345 347 349 352 354 355 353 354 353 354 354 354 353 352 349 345 344 343 323 323 329 335
315 313 315 318 319 328 339 336 340 340 341 343 344 346 349 353 354 353 352 353 353 355 355 354 349 346 344 337 339 319 319 325 330
324 324 320 317 314 319 331 341 338 337 339 341 345 347 348 350 353 352 353 354 355 355 352 350 347 342 337 336 336 331 319 317 330
325 323 325 336 318 319 325 335 339 337 337 342 344 345 345 345 350 351 355 353 352 351 347 345 343 339 336 335 335 324 315 314 320
336 337 338 343 341 335 342 335 341 337 339 340 340 341 345 348 351 354 353 350 348 344 343 341 337 336 332 331 332 327 315 313 314
326 327 328 329 334 342 344 345 342 340 340 343 345 350 353 352 349 347 347 345 345 341 339 336 335 333 333 332 331 327 321 317 316
322 324 324 324 322 321 321 346 351 353 353 355 353 350 349 347 344 344 332 319 331 337 331 334 334 333 333 332 330 327 319 317 320
321 322 323 320 319 318 321 322 334 353 354 352 348 344 344 342 331 327 324 321 314 303 302 303 309 314 326 316 316 307 304 302 302
319 324 324 326 326 322 322 329 325 343 347 347 346 344 341 334 330 330 329 326 320 312 305 300 299 302 306 310 310 303 301 299 300

GFSFLT1_sfc_thetae_015.txt.gz
Theta_e
324 326 328 330 331 333 337 338 341 343 343 344 348 349 349 349 348 347 346 343 344 345 347 348 350 349 348 344 336 335 332 330 329
323 324 327 329 331 332 335 337 339 343 342 342 346 349 349 349 349 348 346 344 345 346 348 349 349 350 348 344 338 335 332 330 330
321 324 325 328 330 332 334 336 339 342 344 343 344 347 349 349 349 349 348 346 345 346 347 348 347 349 347 343 338 335 333 330 329
322 323 325 326 329 332 333 336 337 341 344 344 344 345 347 347 349 350 349 346 347 347 347 347 347 348 347 343 338 337 335 332 330
320 324 326 327 327 330 332 334 336 340 342 344 345 347 348 347 348 349 350 348 347 349 347 347 347 347 346 343 340 337 335 334 334
316 321 324 326 326 326 331 334 336 339 342 345 346 347 348 348 348 348 349 350 350 349 349 345 346 346 345 343 341 337 336 334 334
316 320 323 323 323 325 330 334 336 339 342 345 346 348 349 348 349 350 349 350 349 350 349 346 345 345 346 346 343 340 337 336 334
315 317 320 323 324 327 330 333 337 340 342 346 347 347 348 349 350 352 352 350 349 349 349 348 346 344 345 346 345 342 339 338 335
309 315 317 319 326 327 329 332 336 339 342 345 348 348 348 350 351 352 352 352 350 349 348 348 345 344 343 342 345 336 335 339 337
309 311 314 319 322 324 329 333 337 338 342 345 348 348 349 350 351 352 352 353 352 349 348 349 345 343 343 342 343 332 331 335 338
308 311 315 320 324 326 330 335 338 339 342 345 347 348 349 351 352 351 352 353 352 351 350 350 345 344 342 343 343 326 327 333 338
310 312 314 320 327 328 331 335 338 339 340 343 346 347 348 351 352 352 352 352 353 354 352 349 348 346 344 344 343 324 324 328 337
312 311 311 317 325 328 328 333 338 338 338 341 345 348 349 352 353 353 352 353 353 355 355 352 350 348 347 340 344 320 320 328 338
323 316 318 315 313 323 329 331 335 337 338 339 344 348 351 351 353 354 353 353 354 354 354 353 352 350 349 346 341 322 317 322 335
331 331 334 340 337 331 324 323 330 335 337 341 342 345 346 349 351 353 353 352 353 354 353 352 350 349 340 340 334 323 316 318 322
324 323 322 323 323 326 326 340 333 329 334 339 342 342 343 344 349 352 352 351 352 352 352 350 346 340 336 335 335 333 315 313 314
321 321 321 320 319 317 316 322 330 333 339 335 335 339 341 343 347 349 351 353 354 352 349 347 342 338 335 333 332 329 319 315 319
319 319 319 319 318 317 317 320 323 323 322 327 334 336 338 341 346 349 345 327 342 349 340 339 338 337 335 333 330 329 317 316 319
318 320 320 320 320 318 317 321 330 328 326 327 335 342 347 347 347 330 325 323 318 307 312 315 313 314 327 327 317 306 304 303 303
319 323 325 325 325 327 325 327 331 329 327 327 323 341 346 338 330 331 333 336 332 323 315 304 300 305 309 312 311 303 300 299 300

GFSFLT1_sfc_thetae_018.txt.gz
Theta_e
327 329 332 334 335 335 337 338 339 342 344 344 346 346 346 347 347 346 346 346 346 346 347 349 352 351 351 349 345 343 340 337 334
320 324 329 331 334 335 336 337 339 341 343 344 345 347 347 347 347 347 346 347 347 347 348 350 351 351 350 349 345 342 339 336 335
320 322 325 328 331 333 336 338 339 342 343 343 345 347 348 348 348 349 349 348 346 346 348 351 350 351 351 349 345 341 339 336 336
319 321 323 325 329 332 334 336 339 340 342 343 343 347 348 348 348 349 349 348 347 347 348 349 350 350 350 348 345 341 338 337 336
319 322 323 326 327 330 331 333 336 338 341 342 343 345 348 348 349 350 349 348 349 349 347 349 350 350 350 348 345 342 340 337 337
313 318 321 324 325 327 330 332 334 337 339 342 343 344 345 347 348 349 348 348 349 349 349 348 349 349 349 348 345 342 341 340 338
311 314 316 319 323 326 329 332 333 335 338 341 343 344 344 345 346 348 349 349 349 348 350 348 348 348 349 348 346 344 342 340 339
309 312 315 320 322 324 327 331 334 336 337 341 344 344 344 344 347 348 348 350 350 350 349 349 348 348 348 349 347 345 342 341 339
306 310 315 320 323 325 327 331 333 336 338 341 343 344 344 346 347 348 348 348 349 350 349 350 348 347 347 347 347 337 334 340 340
306 307 313 318 321 324 327 330 334 335 338 342 343 343 345 347 348 348 349 350 349 348 348 349 347 347 347 347 348 331 331 335 343
306 307 310 314 318 323 324 329 332 336 339 341 343 343 345 347 348 348 350 350 349 349 349 348 347 347 347 346 346 329 328 333 344
307 308 310 313 318 321 325 327 332 336 338 341 343 344 345 347 349 349 350 350 350 351 349 348 348 348 346 345 346 326 323 330 343
309 312 312 315 321 327 326 330 334 336 337 340 341 345 347 349 350 350 349 351 351 352 352 350 351 348 347 340 346 321 320 330 341
332 335 334 318 320 320 323 332 335 335 337 338 343 346 349 350 351 351 351 352 353 353 353 352 350 348 348 348 345 334 318 321 340
326 328 334 336 334 335 338 334 335 335 336 341 345 347 349 349 351 352 352 352 353 353 353 352 349 348 348 349 347 324 315 320 327
322 321 321 322 320 323 328 337 336 334 336 340 341 343 345 349 351 352 354 353 352 352 353 351 348 346 347 344 335 329 316 316 320
319 320 319 320 318 318 320 324 327 328 331 340 341 337 340 344 348 349 353 354 353 352 352 350 348 347 343 339 334 331 327 328 325
319 320 320 321 319 318 320 324 329 331 331 329 335 341 337 340 344 344 351 352 351 352 354 349 350 348 341 335 333 330 319 321 326
323 324 326 328 329 329 328 328 329 328 328 328 328 335 341 338 342 345 349 331 324 307 317 310 312 315 328 331 316 309 311 308 305
322 325 326 327 327 330 332 332 329 325 327 329 328 326 340 343 339 339 331 335 332 323 315 305 307 310 313 316 317 310 302 300 302

GFSFLT1_sfc_thetae_021.txt.gz
Theta_e
335 337 339 341 344 346 348 349 350 350 351 354 356 357 358 359 361 356 357 359 354 353 353 355 361 362 363 362 361 360 358 354 351
329 334 337 339 344 346 348 349 350 351 351 353 356 356 357 358 359 358 357 360 360 355 361 356 360 361 362 362 361 360 358 353 351
325 328 333 338 341 344 347 348 351 351 352 353 355 356 357 356 358 359 359 360 360 360 360 360 359 360 361 361 361 360 358 355 353
324 327 329 333 339 343 346 346 348 350 351 352 354 356 357 357 357 357 359 359 360 360 361 361 360 360 360 360 360 359 357 356 354
324 329 331 333 335 339 342 345 345 347 349 350 353 355 357 356 358 358 357 358 359 361 361 361 363 362 360 360 360 359 356 355 353
322 326 330 333 333 335 339 342 345 346 347 348 351 354 355 356 357 357 357 358 360 361 361 361 359 362 361 359 359 358 357 357 355
322 324 329 332 334 338 340 342 344 345 347 349 350 351 353 354 356 357 357 359 360 360 361 361 361 362 361 360 359 358 357 356 355
320 320 323 327 330 338 341 342 344 345 346 349 351 352 351 353 357 358 359 359 359 360 361 360 361 361 361 361 358 355 357 355 355
320 321 321 325 330 336 338 341 343 344 346 348 351 352 351 354 356 358 358 359 360 360 360 360 360 360 360 359 356 342 339 351 355
321 323 325 327 328 334 339 340 344 344 346 350 350 348 353 355 356 356 357 358 359 358 358 359 359 359 359 359 360 334 333 338 355
321 322 323 327 324 331 341 339 339 346 346 349 350 351 353 355 355 355 357 357 357 358 359 358 358 358 359 359 359 331 329 334 353
321 323 326 325 325 327 339 341 345 347 347 349 350 350 352 354 355 355 357 356 356 357 358 358 358 359 359 358 359 328 326 333 351
319 320 322 323 327 330 334 338 339 345 344 347 349 351 353 356 358 357 357 357 359 359 359 357 357 358 359 349 358 327 322 331 351
334 334 326 326 333 338 340 342 341 345 346 347 350 352 355 357 358 358 359 360 360 359 359 357 358 357 358 359 354 355 320 321 353
341 341 338 337 341 344 345 344 346 346 348 351 353 355 356 359 360 358 358 360 361 360 358 356 356 355 355 355 358 333 317 318 330
337 336 337 344 343 341 343 347 350 347 350 351 353 354 357 358 360 361 361 360 359 357 358 353 352 350 349 348 351 352 316 317 322
329 329 329 330 333 334 336 340 342 343 344 352 353 353 355 358 357 359 361 359 358 357 355 352 352 351 349 348 348 340 328 328 329
328 329 330 332 335 336 336 338 338 338 339 340 341 347 351 351 353 355 358 360 360 359 361 354 354 355 353 349 337 332 322 326 331
328 329 334 336 338 338 337 335 336 337 339 339 338 339 339 340 344 348 352 355 356 312 310 316 317 318 338 339 320 307 308 310 309
324 329 329 329 331 333 337 339 340 341 342 342 340 339 338 340 339 345 344 351 351 344 327 304 308 309 311 310 312 310 308 308 307

GFSFLT1_sfc_thetae_027.txt.gz
Theta_e
332 334 339 342 345 347 348 350 354 357 363 368 370 369 369 369 372 362 360 365 357 355 353 355 369 371 370 370 369 368 372 364 362
328 333 337 342 345 348 350 350 355 359 362 367 369 368 370 371 370 369 363 366 368 362 366 357 369 370 370 370 370 372 372 361 366
327 331 337 341 344 347 351 350 354 359 363 366 368 368 369 369 372 372 370 372 371 366 368 372 371 368 368 369 370 372 373 365 368
327 329 335 340 344 346 350 352 352 355 360 365 367 367 369 369 369 370 372 370 372 372 374 375 370 373 370 369 369 371 372 369 368
327 329 334 340 342 345 346 349 352 353 355 357 365 367 369 368 370 369 369 371 370 374 373 374 376 373 372 371 369 371 370 368 362
328 330 333 336 340 342 344 346 352 352 356 355 357 364 364 369 369 368 367 370 371 373 374 374 372 373 374 372 369 370 371 370 368
327 330 332 334 335 337 342 347 354 357 354 356 357 358 360 364 368 368 369 370 373 372 374 373 373 373 373 373 371 369 369 369 369
324 327 329 331 333 338 343 350 357 359 355 359 359 361 361 363 369 372 373 372 373 373 373 373 374 373 373 374 372 366 369 368 368
321 322 325 328 331 334 340 343 351 356 360 358 359 363 361 365 369 371 372 374 373 374 373 373 373 373 371 371 369 348 342 360 366
321 322 324 326 328 329 336 340 345 348 358 360 360 362 365 365 369 370 372 374 374 372 372 374 373 372 372 371 372 340 336 341 366
323 324 325 327 327 329 333 333 334 346 347 362 363 364 363 367 367 370 372 372 372 373 373 371 372 372 373 372 371 340 331 336 362
324 325 327 328 329 330 338 334 336 339 346 356 362 362 365 365 368 369 370 370 371 372 372 371 370 372 372 371 371 335 329 334 359
333 329 331 331 330 331 332 337 335 336 338 348 359 362 365 368 370 369 370 371 372 373 373 371 369 370 372 360 371 339 327 333 359
339 339 339 338 340 339 338 340 338 346 346 347 356 359 364 369 371 371 372 372 373 373 372 369 370 370 371 372 368 368 325 322 362
340 340 339 336 338 342 342 341 345 353 356 360 366 366 365 369 371 366 365 373 373 373 372 370 368 369 367 368 372 343 331 319 328
341 341 343 344 344 345 347 354 355 354 367 365 367 368 370 371 372 370 371 371 372 366 369 362 362 360 361 362 364 369 329 318 320
341 342 343 344 346 347 351 359 359 360 363 362 361 363 367 367 366 366 368 362 363 361 359 359 359 357 359 357 362 364 368 350 334
342 342 342 346 348 348 349 352 352 353 355 361 360 362 362 363 361 362 365 366 360 360 365 354 358 358 358 357 358 359 345 348 361
341 341 344 346 347 347 347 349 349 352 354 354 353 357 357 356 357 359 359 359 361 332 329 320 312 307 326 356 330 315 310 308 313
332 336 338 341 344 343 343 340 343 350 352 352 351 351 351 347 339 345 347 349 350 349 338 314 313 307 304 303 302 303 305 302 306

GFSFLT1_sfc_thetae_030.txt.gz
Theta_e
331 334 338 343 346 346 346 347 350 354 359 360 362 362 363 361 366 359 355 364 356 357 356 356 365 363 366 366 366 366 369 364 363
328 332 335 341 346 348 347 347 350 353 358 360 363 361 364 363 361 364 356 360 364 361 362 361 367 364 364 364 366 366 366 362 363
328 332 335 341 345 348 348 348 350 353 357 360 363 364 363 364 361 363 364 359 363 360 364 363 372 365 365 365 365 368 366 364 365
327 332 335 339 345 348 350 349 350 351 354 360 363 364 364 364 365 362 362 363 361 366 362 371 363 370 366 365 364 365 366 363 361
328 331 337 339 343 347 350 349 349 351 353 357 362 365 365 364 365 366 364 360 362 365 368 364 370 367 366 365 364 365 363 363 359
329 333 335 338 342 344 348 350 350 351 353 354 361 364 365 364 364 364 364 365 362 365 365 369 365 369 367 364 364 363 365 363 362
329 334 336 338 340 344 347 350 352 352 352 355 357 362 363 363 364 364 364 365 366 363 366 364 366 366 366 367 365 365 364 364 363
330 333 336 340 341 343 347 350 353 355 355 355 357 356 361 362 364 366 366 365 366 367 365 366 365 366 366 366 367 365 363 363 363
326 328 331 336 341 345 349 355 355 355 356 358 358 357 357 361 363 364 367 366 366 367 366 366 367 366 365 365 365 350 344 357 362
324 323 325 331 337 342 346 348 360 356 357 359 361 360 361 361 363 363 365 367 367 365 366 367 366 366 367 364 365 342 339 343 361
324 325 330 336 328 335 342 338 341 352 359 362 360 363 363 366 365 363 365 365 366 367 367 367 366 366 367 366 366 340 333 338 359
325 330 332 333 330 333 345 340 343 346 347 359 359 358 361 362 367 365 365 365 366 367 367 367 367 367 367 367 366 335 330 333 355
336 338 341 343 342 342 341 355 345 350 347 354 356 358 359 365 363 365 364 366 367 369 369 367 368 367 368 357 367 340 327 332 358
338 341 343 345 346 344 355 355 350 356 357 351 357 360 363 365 368 365 366 368 369 369 369 368 367 367 368 368 365 364 325 322 360
337 341 342 341 345 347 352 357 357 355 361 369 370 369 364 367 370 365 366 369 370 369 368 366 365 366 365 367 369 341 333 320 325
341 345 346 345 347 353 361 363 367 365 372 375 374 377 371 369 372 369 368 369 367 366 367 365 364 363 362 364 366 367 329 321 320
339 345 345 343 347 352 360 366 367 370 373 376 374 377 376 374 372 368 369 367 367 365 363 363 362 360 360 361 362 364 365 354 334
335 342 347 351 352 353 352 355 355 357 360 365 367 370 370 372 367 367 368 367 363 365 365 356 361 361 360 358 359 338 317 323 349
336 338 343 346 350 349 349 350 350 355 357 361 365 366 363 361 360 363 362 363 363 335 326 317 305 306 327 342 312 303 301 302 306
331 337 340 342 346 343 345 345 348 351 354 357 359 359 364 351 350 356 362 362 363 359 327 309 307 303 302 301 299 299 298 297 299

GFSFLT1_sfc_thetae_036.txt.gz
Theta_e
331 332 331 334 336 336 337 341 343 343 344 346 349 349 349 350 349 349 347 343 342 343 348 348 350 354 354 353 353 351 349 348 348
330 331 332 333 336 337 338 341 343 344 343 345 349 349 350 351 351 350 348 346 346 342 347 352 351 352 355 354 354 351 351 348 348
330 332 332 332 335 337 338 341 344 346 347 345 349 350 350 349 350 354 351 347 345 348 346 348 352 352 355 354 353 353 352 351 349
329 331 332 330 335 338 338 340 344 348 348 347 349 352 352 350 348 349 354 349 344 345 348 347 348 352 352 355 354 353 351 351 353
329 330 332 333 336 337 337 339 342 346 350 349 350 353 353 352 351 349 348 354 349 346 346 350 347 352 352 353 354 355 352 350 352
325 328 331 335 336 336 337 338 341 344 349 351 351 352 351 351 351 350 348 349 354 351 346 348 351 354 352 352 353 354 355 353 352
318 329 333 334 335 336 337 338 339 343 345 352 352 352 351 349 351 352 352 350 349 354 352 345 349 352 355 354 354 354 354 355 354
320 329 332 334 335 336 338 338 339 342 345 348 352 352 351 351 351 353 354 353 351 350 351 353 348 350 352 357 356 356 355 354 353
321 329 333 336 337 338 338 338 339 341 343 346 351 351 351 353 354 353 353 354 354 352 351 350 353 352 354 352 357 345 341 352 355
317 326 334 336 337 338 340 340 340 340 342 345 349 351 352 353 354 354 354 355 355 355 354 353 349 350 353 353 354 337 337 341 355
322 324 323 321 330 335 339 341 341 341 343 343 344 346 351 352 354 354 355 355 355 355 355 356 354 351 351 354 354 334 332 336 353
327 326 327 328 330 326 327 342 344 343 342 343 343 344 345 351 354 355 355 354 355 355 356 355 355 357 355 352 353 330 329 332 349
336 331 328 328 327 330 331 329 337 344 343 343 342 344 346 348 352 354 354 355 355 357 356 356 357 356 357 349 356 330 326 331 353
336 338 336 336 338 334 328 329 332 335 339 344 347 348 347 349 349 352 355 355 356 356 357 357 356 356 357 358 354 354 324 323 354
328 333 338 343 347 346 348 343 337 341 341 344 344 346 348 350 353 352 353 353 354 355 355 355 355 355 357 359 359 334 324 321 325
324 327 331 336 341 342 345 345 345 342 344 348 348 346 345 347 350 353 355 355 353 353 355 355 354 355 355 357 358 360 325 321 322
323 325 327 332 334 340 339 342 343 343 344 346 346 346 348 347 348 349 352 355 357 356 356 356 356 356 356 357 357 358 343 339 333
323 325 327 329 331 334 337 338 338 339 342 343 343 344 350 351 350 349 351 334 333 353 356 352 357 358 358 354 349 331 316 320 337
322 324 326 329 330 334 335 336 337 338 340 342 341 341 348 350 351 352 352 335 322 308 305 305 307 310 320 315 309 305 303 301 300
320 323 323 324 327 332 333 333 334 337 340 339 337 338 334 345 344 351 350 332 327 321 318 306 301 302 304 307 305 301 299 302 302

GFSFLT1_sfc_thetae_039.txt.gz
Theta_e
328 326 331 334 334 335 337 338 339 339 341 340 341 342 343 343 342 342 342 342 341 341 343 346 348 351 351 349 349 349 347 345 344
325 325 328 333 335 335 336 337 339 340 341 342 342 343 345 345 344 344 343 342 343 342 343 346 346 350 352 351 351 349 348 345 345
325 326 328 332 335 336 337 338 340 341 342 342 344 345 345 346 346 347 346 345 342 341 343 347 347 347 350 351 351 350 348 346 345
323 326 329 332 334 336 337 338 341 340 341 341 344 346 346 346 347 348 348 346 344 346 342 345 347 348 349 350 350 350 349 348 348
325 329 331 333 333 334 336 337 340 341 341 341 343 347 346 347 348 349 350 348 345 344 346 345 346 349 349 350 351 350 349 348 351
321 328 331 333 333 333 335 337 338 342 343 343 343 346 347 346 346 346 347 351 351 344 342 345 345 347 348 349 351 351 351 350 349
319 326 330 332 332 331 335 337 337 340 344 346 345 346 347 347 348 347 346 347 350 351 346 344 347 348 349 350 350 352 352 352 350
309 322 329 331 331 331 334 336 337 340 345 347 347 347 348 348 350 350 349 347 347 350 351 347 347 347 350 351 351 352 351 352 352
314 323 327 329 332 333 334 335 336 339 343 348 349 348 347 349 348 350 350 349 348 346 349 351 349 345 347 350 353 342 340 348 351
313 321 326 328 332 334 335 336 337 338 342 346 349 348 348 349 349 348 349 350 350 348 346 347 349 350 348 347 348 336 336 340 353
320 321 327 331 334 335 336 338 338 338 342 343 347 348 348 349 350 349 349 350 350 351 350 348 347 347 348 349 351 335 331 336 351
327 322 323 328 335 336 337 338 339 338 340 341 344 346 348 350 351 350 351 350 350 352 352 352 352 351 348 347 349 329 328 332 348
334 338 333 326 329 333 336 337 338 338 338 339 339 344 347 350 352 352 351 353 353 353 354 353 354 354 355 345 350 330 325 329 349
330 336 343 343 335 328 326 332 340 338 339 338 341 342 343 346 351 352 354 353 354 354 353 354 353 353 354 355 351 350 323 322 349
325 329 334 341 341 341 343 342 339 337 342 345 342 341 341 343 345 351 352 353 354 353 353 352 352 352 352 355 356 334 324 321 324
324 327 330 336 339 339 341 342 341 340 340 345 343 343 343 343 345 346 348 351 351 352 352 352 351 352 351 353 354 356 325 320 321
322 326 328 332 335 335 334 336 338 339 340 342 343 343 344 343 345 347 348 350 350 350 351 350 351 350 351 352 354 356 358 343 331
319 320 324 328 330 333 333 334 335 337 340 341 340 341 344 347 345 341 341 321 324 344 348 344 353 353 354 353 355 351 326 330 344
317 317 319 323 325 328 331 332 333 335 337 338 337 337 337 340 346 345 335 322 319 305 302 302 305 312 326 316 309 302 302 302 303
313 313 317 321 325 326 330 330 330 335 335 334 332 333 334 332 340 348 334 325 326 322 316 305 300 300 301 302 301 299 299 299 300

GFSFLT1_sfc_thetae_042.txt.gz
Theta_e
331 332 334 334 336 336 336 338 338 339 338 338 339 340 342 342 343 341 342 342 342 342 344 347 351 351 353 353 353 353 352 349 348
329 331 333 334 336 337 337 338 339 339 339 339 340 340 341 342 342 342 342 343 344 343 345 348 350 351 353 353 353 353 353 350 350
326 330 330 332 335 336 338 339 340 340 340 339 340 341 342 342 343 343 344 344 343 343 345 349 349 350 352 353 354 353 352 351 351
325 327 328 328 332 337 337 339 340 340 340 340 341 342 342 343 344 344 345 345 345 344 345 347 348 349 350 352 353 354 352 352 352
325 328 328 328 330 335 336 336 338 339 340 340 342 343 343 343 345 346 346 346 346 346 345 347 349 350 350 350 352 353 352 352 353
320 326 328 328 329 332 335 335 337 338 340 340 343 344 344 344 345 346 346 347 347 347 347 346 348 349 350 350 351 352 353 353 352
311 322 325 327 329 332 335 336 337 339 340 341 342 344 345 344 345 346 348 349 349 346 347 348 348 349 349 351 352 353 353 353 353
308 314 324 328 330 332 334 336 337 340 341 342 342 343 345 344 346 348 348 350 351 350 347 347 348 349 349 351 351 352 353 354 353
313 311 314 326 331 333 333 335 336 339 341 342 343 342 344 346 347 347 347 347 347 351 351 349 348 348 348 349 350 340 339 349 354
326 318 312 317 330 332 333 335 337 338 342 345 344 344 345 347 348 348 348 349 347 347 348 351 350 348 349 349 351 335 334 339 353
327 328 321 322 331 333 333 336 338 339 343 346 346 345 346 348 349 349 349 350 349 348 348 348 350 350 350 348 349 332 330 335 351
329 335 324 327 331 333 335 336 338 339 342 346 347 346 347 348 349 348 348 348 349 350 350 348 348 349 350 350 350 328 327 331 349
330 337 336 329 332 334 334 336 338 339 340 343 345 347 348 350 351 350 349 349 350 352 353 352 352 350 351 343 350 330 325 329 349
331 336 339 335 334 334 335 337 338 338 340 340 344 348 350 350 351 351 352 352 352 352 353 353 353 353 355 355 349 349 323 321 348
327 331 336 340 339 339 338 338 338 338 338 342 343 345 348 350 351 352 353 353 354 354 353 352 352 353 353 356 358 333 326 320 322
322 325 329 336 335 337 340 342 344 343 344 350 344 342 343 344 350 352 353 353 353 353 354 352 352 352 352 353 356 357 324 320 319
317 320 324 329 334 333 334 338 340 342 344 348 346 344 344 344 344 346 351 353 354 353 352 351 352 352 352 354 356 357 359 343 333
313 316 320 327 328 331 331 335 337 340 341 344 344 347 351 347 347 346 342 324 328 347 349 344 353 354 355 354 354 355 340 343 351
310 312 317 324 329 330 331 333 336 338 339 339 340 342 343 347 347 345 333 328 322 304 302 302 308 318 335 324 309 302 303 304 305
311 314 315 318 325 330 332 332 332 335 334 335 336 338 338 338 342 340 332 330 328 322 312 302 299 298 301 305 302 299 298 298 300

GFSFLT1_sfc_thetae_045.txt.gz
Theta_e
337 337 339 339 340 342 344 345 348 347 348 349 351 352 354 356 357 351 350 354 351 350 349 352 360 361 362 362 364 363 363 360 359
334 337 338 339 340 342 344 345 347 348 349 350 350 350 353 355 356 356 353 358 356 352 357 352 358 361 361 362 362 363 364 359 361
333 337 339 340 341 342 345 345 347 349 350 350 351 351 352 353 354 356 356 357 356 357 355 356 357 360 361 361 362 363 363 360 362
329 335 338 340 343 344 345 345 346 348 348 350 350 351 352 353 353 353 355 354 355 358 356 357 358 360 361 360 361 362 363 362 361
325 333 337 340 342 343 344 346 347 347 348 347 349 351 352 352 353 354 352 354 354 357 358 358 359 360 360 360 360 361 361 360 359
327 332 335 338 339 341 345 346 347 347 348 346 347 351 349 350 351 351 354 355 356 357 358 358 356 358 358 359 359 360 361 361 361
318 327 334 336 337 340 344 346 347 348 348 348 348 348 349 351 352 353 354 357 358 356 359 358 357 358 359 359 359 360 360 360 361
317 318 326 335 337 339 343 346 347 349 349 350 350 351 350 351 354 356 357 358 359 358 358 359 359 358 358 359 358 356 359 360 361
326 328 325 329 337 340 341 344 346 347 348 349 352 352 351 354 355 356 357 358 359 359 358 359 359 357 358 357 355 341 339 353 359
329 331 335 335 329 340 342 344 347 346 348 351 351 352 354 355 356 356 357 359 359 360 359 358 359 357 357 359 360 336 334 339 357
328 332 334 338 336 333 344 343 344 348 349 350 351 352 353 356 356 356 358 358 358 360 360 360 359 358 359 359 360 334 330 334 355
327 331 334 341 342 329 344 345 348 349 350 351 351 351 353 355 356 356 357 357 357 357 356 357 358 359 359 359 360 330 328 335 355
330 336 343 341 337 333 343 346 347 348 349 350 350 352 354 357 359 358 358 359 360 360 359 356 356 356 359 350 361 333 324 332 353
328 333 341 342 341 343 345 348 348 348 350 351 353 354 356 359 360 360 361 362 362 360 358 360 358 357 359 359 356 356 323 320 352
322 330 336 344 342 344 347 349 349 349 351 357 359 360 359 360 361 358 357 361 360 360 360 358 359 359 358 359 361 335 327 320 323
315 324 335 340 344 345 348 348 351 349 351 357 358 359 360 360 361 359 362 360 360 356 359 356 356 356 356 357 361 363 325 319 318
311 316 328 337 341 342 344 350 352 353 356 354 355 357 358 360 359 358 361 358 358 357 356 356 356 356 356 358 360 362 364 353 340
313 314 317 331 336 339 340 346 346 348 351 357 353 353 354 355 355 355 358 360 350 358 362 351 357 358 359 358 358 360 345 347 361
315 315 316 320 329 337 338 340 341 343 343 348 353 357 354 350 350 351 354 343 332 304 304 302 308 316 342 344 315 309 308 308 313
315 318 318 317 319 325 336 337 336 338 342 344 346 346 343 350 344 349 347 345 343 334 314 302 298 299 305 311 309 300 299 300 301

GFSFLT1_sfc_thetae_048.txt.gz
Theta_e
338 340 342 343 344 344 345 347 348 349 353 356 359 357 361 363 362 353 353 358 354 352 350 351 359 364 364 366 366 366 366 365 361
333 338 341 343 346 346 346 347 351 353 356 357 356 354 361 363 363 362 356 364 359 354 361 353 357 359 363 363 365 366 367 359 363
331 338 341 343 345 347 347 348 350 351 352 355 356 355 356 356 358 362 361 361 362 362 358 361 358 359 359 361 364 365 367 362 364
328 336 340 343 345 347 348 349 349 350 351 353 354 356 358 358 356 357 359 358 359 361 361 361 362 360 359 361 363 365 365 365 362
329 334 339 342 344 346 347 348 348 349 350 351 353 358 361 358 359 359 356 358 359 362 361 362 362 362 361 360 361 364 365 363 360
328 331 336 341 342 344 346 348 349 348 350 350 352 355 354 354 355 355 358 359 360 362 362 362 361 361 362 361 360 363 364 364 363
324 327 333 336 340 343 347 349 355 354 350 351 351 352 352 356 356 357 356 362 363 360 364 362 362 363 362 362 360 360 362 363 363
322 323 328 335 338 343 350 352 357 356 352 355 354 357 352 356 361 362 363 364 364 362 365 363 363 363 362 362 360 356 360 360 360
323 327 327 328 336 340 344 348 354 357 358 355 356 360 357 361 364 365 364 366 367 366 365 364 364 362 362 361 358 341 338 351 357
328 331 334 337 336 337 342 345 352 354 358 358 358 361 361 363 365 364 366 366 367 366 366 365 364 363 363 365 365 337 334 339 356
333 335 337 339 341 343 339 343 346 352 354 360 360 361 362 364 365 364 366 367 367 368 365 366 364 363 367 367 365 335 331 335 359
334 337 340 342 344 345 348 342 346 351 351 355 358 360 362 364 365 364 364 365 366 365 364 364 364 364 367 368 368 331 329 336 358
332 337 340 343 348 350 349 350 344 347 349 352 356 359 362 365 366 366 365 366 367 368 365 363 362 362 366 354 366 334 325 336 357
327 332 338 346 349 349 349 348 344 352 353 353 357 357 358 363 366 367 368 369 369 368 365 364 366 364 367 368 362 361 323 322 358
318 325 340 348 345 344 344 344 351 356 356 359 362 363 362 365 368 361 361 369 368 366 366 365 366 364 362 362 365 337 325 320 325
313 317 330 345 348 346 348 351 353 353 362 362 363 362 365 364 365 363 368 366 366 361 365 360 359 358 358 358 361 364 327 319 319
313 315 317 334 343 347 350 353 354 355 359 365 363 361 363 363 362 361 363 362 362 360 359 358 357 357 357 358 360 362 366 356 342
315 316 317 320 331 340 342 346 349 355 359 360 359 360 360 362 361 361 361 363 349 360 366 350 358 359 360 359 359 361 348 350 365
316 316 318 319 321 330 337 340 344 348 354 359 356 355 355 356 357 359 359 359 352 306 305 301 303 308 335 353 321 314 318 316 319
317 316 318 318 320 325 332 334 335 341 351 354 357 352 361 354 350 355 353 353 351 348 338 304 300 299 304 314 314 302 301 301 302

GFSFLT1_sfc_thetae_051.txt.gz
Theta_e
338 340 340 341 343 344 348 350 352 354 359 362 364 361 361 361 364 351 348 357 352 350 348 351 371 365 364 366 367 364 369 362 359
333 338 341 342 343 345 348 350 353 354 359 362 363 356 362 364 363 358 351 357 364 357 362 352 361 364 364 364 364 368 371 359 363
332 337 340 342 344 345 347 348 351 355 357 361 362 360 362 362 363 365 363 365 368 363 365 366 361 362 361 363 366 367 373 364 368
330 334 339 342 344 347 348 349 350 351 354 358 359 361 362 360 360 361 364 365 367 368 367 369 368 365 364 363 363 367 371 370 366
328 332 337 342 344 347 348 349 349 351 351 351 356 359 363 361 361 361 360 362 366 370 369 367 368 368 367 365 364 368 369 364 361
327 330 334 341 343 345 347 349 351 350 351 351 352 358 359 360 359 361 359 364 364 368 369 370 363 368 369 366 364 367 370 369 366
324 329 334 337 341 343 346 352 355 355 351 351 351 353 354 358 360 361 360 364 367 367 370 369 369 370 370 367 366 365 365 367 367
324 325 330 334 339 346 353 354 358 359 354 356 354 356 355 358 363 363 364 363 367 368 369 370 371 371 370 369 363 358 365 367 367
323 325 328 331 336 341 347 354 358 360 358 358 357 358 356 359 362 364 363 364 367 369 369 370 371 370 370 368 359 343 339 356 363
323 325 328 331 331 337 341 346 356 357 360 360 360 361 360 362 364 364 365 366 368 368 369 371 371 370 370 369 369 336 334 339 358
334 335 333 337 338 339 340 343 346 354 357 363 362 361 364 363 366 365 367 368 367 368 369 369 369 371 371 371 370 337 330 335 361
337 339 340 342 344 344 347 343 345 354 354 363 362 363 364 365 366 366 368 367 368 369 369 369 369 371 372 372 371 333 329 336 360
337 340 341 343 346 347 348 349 347 345 351 356 361 364 364 368 368 368 368 369 370 372 371 370 366 368 372 360 373 334 326 336 358
333 338 341 345 348 347 350 353 350 351 351 354 361 364 367 369 369 370 371 372 372 372 371 366 370 368 371 372 367 368 325 322 363
327 330 334 341 351 352 354 355 357 357 354 359 366 366 366 369 371 367 366 372 372 372 371 370 370 370 368 366 373 342 326 321 327
322 322 329 334 348 353 350 356 359 359 357 368 366 367 367 368 371 370 370 370 371 366 370 361 361 360 358 357 361 366 327 320 321
317 319 320 325 337 353 354 358 357 359 372 369 369 367 366 368 368 368 369 365 365 361 359 359 357 356 355 354 355 354 360 353 339
314 316 318 320 326 334 339 347 353 358 364 367 363 366 366 364 363 362 365 368 359 361 348 345 357 353 352 349 351 351 342 349 361
315 315 317 317 321 325 326 330 332 336 342 365 362 361 359 359 358 360 361 352 348 309 316 305 304 305 326 355 317 314 309 314 314
315 315 317 318 319 322 324 325 328 334 337 349 360 358 364 359 353 358 360 359 355 350 329 304 302 305 306 308 309 305 305 305 307

GFSFLT1_sfc_thetae_054.txt.gz
Theta_e
333 339 340 340 342 343 344 344 347 348 353 352 355 358 354 356 360 352 354 361 356 361 358 357 364 366 365 368 369 368 369 364 363
329 334 338 340 343 344 345 346 347 350 353 354 356 354 358 353 359 357 351 358 362 361 362 359 363 365 367 367 367 366 368 363 363
328 334 334 338 343 344 347 347 350 351 354 354 357 356 357 355 352 357 358 351 358 358 366 365 364 365 365 366 368 367 368 364 364
327 329 335 336 337 346 348 349 351 350 353 355 357 358 356 355 354 354 354 357 350 362 360 371 368 369 367 364 364 368 368 364 364
333 336 336 335 331 335 346 348 349 350 351 355 357 359 357 356 357 354 353 350 361 360 367 365 373 367 370 365 365 365 365 363 358
328 336 328 329 334 338 346 347 349 351 351 351 357 359 357 356 355 356 355 353 354 362 361 365 363 368 364 365 362 363 365 364 362
325 329 331 333 339 342 348 348 350 350 351 353 353 356 357 356 355 355 354 358 355 360 363 362 363 363 365 365 363 362 364 365 363
325 327 328 332 335 340 349 350 351 352 353 352 353 354 354 356 359 357 357 356 359 356 360 362 364 363 365 365 363 360 361 362 364
319 321 328 332 330 349 347 352 352 353 353 353 354 353 353 356 358 358 358 356 358 360 359 362 363 364 364 364 362 346 341 355 359
315 320 321 333 337 339 344 350 355 353 354 355 354 354 355 355 358 359 357 360 357 359 359 361 362 363 365 364 364 339 336 341 358
315 320 322 342 334 341 346 343 348 357 357 356 356 355 357 356 358 358 359 358 359 358 360 360 361 363 365 365 365 339 330 336 354
315 319 325 341 342 344 349 349 350 356 358 356 356 356 357 357 357 358 358 357 358 359 360 361 361 363 365 364 365 334 331 333 351
318 337 340 340 342 344 345 349 350 350 353 358 354 355 357 361 357 360 358 359 359 360 362 361 362 362 365 356 365 336 329 333 355
331 334 337 341 343 345 349 351 352 350 351 352 360 358 361 362 361 360 362 363 363 362 363 363 363 362 364 366 363 362 325 323 357
329 331 333 337 340 343 353 356 352 350 352 357 361 363 360 365 365 362 364 364 365 365 364 363 362 363 363 365 368 341 327 321 327
326 324 327 331 337 345 359 357 360 352 356 360 367 365 361 364 365 366 364 365 364 363 364 362 361 361 360 362 365 366 330 321 320
318 320 320 323 330 336 336 340 347 361 360 363 363 362 363 363 365 363 364 366 365 364 363 362 361 359 360 360 362 363 366 344 333
316 317 319 321 324 326 326 332 340 346 349 362 358 363 362 362 363 361 364 363 364 364 365 358 361 360 359 359 357 357 345 349 354
315 317 319 318 318 319 320 324 331 338 343 347 365 361 361 360 361 362 363 360 352 308 314 306 311 317 342 345 318 310 309 309 320
316 317 317 316 316 317 318 319 324 328 334 342 353 362 361 360 355 360 360 359 350 340 321 302 300 301 308 313 314 305 303 301 309

GFSFLT1_sfc_thetae_057.txt.gz
Theta_e
334 333 329 336 336 336 337 339 340 343 343 346 348 345 344 347 348 343 345 348 347 352 352 351 355 355 355 353 356 355 354 351 351
328 331 335 334 338 337 338 339 340 342 343 344 349 348 344 346 351 343 343 345 346 345 348 352 353 358 355 357 356 356 355 350 352
330 334 336 337 338 339 339 340 341 343 345 344 348 349 348 344 347 351 344 344 345 346 345 348 354 358 356 358 355 354 356 350 353
331 330 334 336 337 340 338 341 341 342 346 346 346 347 350 346 344 350 348 344 341 347 345 355 357 358 356 357 356 356 354 351 353
331 333 334 337 336 338 336 338 341 342 345 347 349 349 348 349 346 346 348 345 343 340 347 349 356 358 356 355 353 355 354 353 353
329 331 333 326 332 336 336 335 339 343 344 348 350 351 349 349 348 344 346 344 345 341 350 347 354 356 355 355 355 353 354 354 354
319 331 331 329 329 332 333 335 337 342 344 348 350 351 351 349 348 348 344 345 342 349 347 355 352 357 354 355 353 354 354 356 355
312 315 328 329 328 329 338 336 339 342 345 346 350 351 351 350 350 349 349 346 345 340 353 349 354 353 356 356 356 354 353 356 356
305 307 313 316 321 324 337 336 334 334 342 346 347 350 351 352 351 350 349 349 350 345 343 354 352 352 354 356 358 345 342 351 355
305 306 309 316 319 333 334 332 333 333 333 348 347 347 351 351 351 350 349 350 348 350 345 347 353 355 355 355 357 340 338 342 353
307 310 313 328 326 340 342 342 337 336 337 339 347 346 348 350 351 351 352 351 349 350 352 348 349 353 356 356 357 339 334 337 349
310 311 314 326 321 333 341 338 335 336 336 335 334 346 347 349 351 350 352 349 350 349 351 352 351 354 355 356 357 334 332 333 340
309 311 313 323 324 332 336 341 336 333 334 332 337 340 349 350 351 352 351 351 351 353 350 350 354 352 355 350 357 335 330 332 349
309 311 313 327 331 332 337 342 344 341 339 334 346 348 351 352 351 351 352 353 353 352 352 351 351 353 354 357 355 356 326 324 352
309 310 316 328 328 329 335 343 343 343 343 346 350 351 351 351 352 352 354 353 353 353 352 351 351 352 353 356 359 339 330 322 325
309 318 321 324 323 325 332 336 337 340 342 348 349 353 351 353 355 352 354 353 352 352 353 352 352 352 353 354 357 359 330 322 321
315 317 317 320 320 326 327 326 329 336 341 344 348 351 354 352 355 353 352 357 355 355 354 354 353 353 353 355 356 358 361 342 331
314 316 318 318 319 319 319 321 324 329 331 336 340 350 355 354 355 353 355 357 357 357 358 354 356 355 356 354 354 355 346 348 350
315 315 316 316 316 317 318 318 319 321 323 328 335 343 352 355 354 355 356 355 337 307 310 309 316 326 347 356 327 326 319 313 318
315 316 316 315 314 314 315 314 315 317 319 324 329 339 350 356 349 355 355 355 350 340 319 303 300 301 314 316 322 308 306 304 310

GFSFLT1_sfc_thetae_060.txt.gz
Theta_e
327 328 330 333 333 333 334 337 338 343 343 342 342 343 343 345 340 340 342 343 347 349 350 351 354 352 352 352 351 350 349 348 347
324 328 332 335 335 334 335 337 337 340 343 342 342 342 342 343 347 341 340 345 347 347 349 349 353 352 352 351 352 351 350 346 346
324 332 333 336 335 335 336 338 338 340 342 343 344 343 342 342 344 348 339 341 342 346 346 348 350 353 352 351 351 351 350 347 348
327 331 333 335 336 337 338 339 339 339 340 341 345 346 344 341 342 345 344 340 341 343 343 345 348 354 352 352 352 350 351 347 347
329 332 334 336 337 338 337 337 338 339 340 341 342 346 346 344 341 343 346 345 341 340 342 348 352 354 352 352 353 351 349 349 350
329 332 333 334 331 328 330 335 338 339 341 342 342 344 346 345 342 341 342 346 343 338 339 342 352 353 353 353 353 352 352 351 349
329 330 331 330 329 329 331 332 333 336 340 344 344 343 344 344 346 343 341 344 345 344 338 339 345 353 353 353 352 352 353 351 349
319 327 330 321 322 321 324 331 333 336 339 343 346 345 345 344 347 348 344 341 344 342 344 342 345 349 352 353 352 352 350 351 350
306 309 314 316 321 328 332 331 325 336 338 341 347 346 346 347 345 347 347 344 341 341 340 346 344 350 352 351 354 342 341 349 351
308 309 311 312 319 333 336 335 335 332 334 338 340 347 348 348 349 347 346 346 343 341 340 338 346 344 350 352 352 337 336 341 351
304 307 308 309 311 323 334 336 338 336 337 337 336 337 347 350 350 348 348 346 346 345 345 339 338 348 347 349 353 336 333 337 350
305 306 307 309 312 320 334 333 336 338 338 338 336 335 335 345 351 350 348 346 346 347 348 346 341 345 352 350 350 332 330 333 347
305 307 307 308 312 324 332 340 337 333 336 338 333 335 335 337 345 350 349 349 348 348 348 348 349 346 346 345 353 332 328 331 350
304 306 307 310 314 328 332 335 334 331 332 331 334 337 336 337 339 347 351 350 351 349 348 348 349 348 348 350 350 350 325 324 351
301 304 306 318 319 323 329 335 337 340 337 339 335 334 334 336 340 346 350 350 351 350 349 347 346 348 349 351 352 336 328 323 326
301 304 307 318 320 319 326 332 331 330 336 343 344 344 345 344 349 350 350 349 349 349 349 349 347 346 346 349 352 354 328 322 321
301 304 307 316 317 320 322 322 325 325 331 333 333 336 340 349 350 350 349 350 351 350 349 348 348 348 347 348 351 353 355 344 333
303 305 310 315 317 315 317 318 320 320 323 324 326 328 334 344 350 346 349 350 350 350 352 348 349 349 350 349 349 351 342 344 351
303 306 312 314 313 316 316 315 315 316 316 318 320 324 330 341 351 350 352 349 338 309 312 316 317 320 340 351 333 325 316 311 317
309 309 315 313 310 310 312 311 312 313 313 314 315 319 325 333 338 353 351 352 347 343 321 303 302 307 311 317 330 311 310 311 308

GFSFLT1_sfc_thetae_063.txt.gz
Theta_e
330 329 331 333 330 334 333 334 336 341 340 339 341 341 340 337 338 340 339 341 341 344 346 349 350 348 349 348 347 348 345 346 344
328 331 332 333 332 333 335 335 335 340 340 340 341 341 341 340 338 338 339 341 343 344 346 349 350 349 349 350 349 347 346 345 344
328 331 332 331 333 332 334 336 337 340 341 340 341 341 342 342 343 340 338 340 343 344 346 347 349 350 348 349 349 349 347 344 344
327 325 327 331 333 334 334 336 337 338 340 340 340 341 341 341 340 344 341 338 340 342 344 346 346 350 349 347 348 349 348 345 345
323 328 329 335 336 335 334 335 336 336 339 340 341 341 341 340 339 340 343 341 338 339 340 342 344 347 349 348 349 348 348 347 348
329 330 329 328 329 330 332 333 334 336 338 339 341 342 341 340 339 338 339 342 342 338 338 340 346 348 349 348 349 349 348 347 347
323 328 321 323 325 328 331 331 332 334 337 339 340 342 343 341 340 339 339 340 342 342 337 338 340 349 350 350 349 350 350 349 347
310 314 311 314 321 324 331 332 329 331 335 339 341 340 341 342 343 342 340 339 340 341 341 339 338 343 350 350 351 351 349 350 349
303 305 308 312 312 314 321 332 335 331 331 337 342 340 339 342 343 344 342 339 338 339 340 341 338 339 342 349 352 341 339 347 349
301 302 303 305 310 314 314 327 335 334 334 336 341 342 342 342 343 343 344 343 339 338 339 339 340 341 343 343 348 336 335 339 349
300 302 302 304 305 310 312 321 330 336 337 334 336 342 343 344 344 342 344 345 342 340 339 339 337 338 341 345 347 334 331 335 347
300 302 303 304 307 307 311 323 336 336 335 337 336 336 340 346 346 346 344 344 344 344 341 340 339 338 338 341 344 330 329 332 345
300 302 303 305 306 310 317 325 332 334 333 336 337 336 335 336 343 348 347 346 345 346 345 343 343 340 338 335 343 327 326 330 348
300 301 303 305 306 311 319 324 329 331 333 332 336 337 335 335 336 337 348 349 348 347 346 346 345 345 343 341 343 345 322 322 348
299 300 301 303 304 307 317 323 325 328 330 335 342 342 334 334 334 339 342 343 348 347 346 344 344 344 345 346 344 330 325 321 325
299 299 300 302 304 306 315 322 327 326 326 329 333 332 334 339 342 337 338 341 344 347 348 346 345 344 344 345 348 348 324 319 320
299 300 300 302 304 306 312 321 326 325 324 326 325 326 330 332 334 340 348 348 346 346 347 347 346 345 344 345 347 349 350 338 329
302 304 304 304 305 306 312 320 321 322 322 319 318 321 325 327 332 339 346 348 346 347 349 346 347 347 347 345 344 346 339 341 347
301 303 303 304 304 306 312 317 318 318 316 315 314 317 322 324 327 331 339 346 344 310 316 314 315 316 336 347 330 323 315 312 313
301 302 302 303 305 308 314 311 311 312 312 311 311 312 316 320 322 327 333 342 347 343 323 304 306 305 309 311 328 308 309 308 309

GFSFLT1_sfc_thetae_066.txt.gz
Theta_e
332 333 334 334 332 332 334 336 337 339 338 338 341 341 340 340 342 342 343 343 343 344 347 350 353 353 352 351 352 351 349 350 352
328 330 332 333 334 333 334 334 335 338 339 339 340 341 341 339 340 341 341 344 345 345 348 350 353 352 352 352 352 352 352 350 349
324 328 328 331 334 332 334 335 336 339 340 340 341 342 342 341 339 340 341 343 344 346 348 351 353 353 352 352 354 351 351 350 350
319 329 331 333 334 333 335 336 335 338 340 340 340 342 342 342 341 340 340 341 344 346 349 349 351 353 352 352 352 353 352 351 350
326 327 330 334 335 335 334 335 336 336 339 340 341 341 342 341 342 344 341 340 341 344 346 349 351 351 352 352 352 351 352 351 352
311 319 324 325 329 332 334 335 336 337 338 340 341 342 341 341 340 341 343 343 341 342 343 344 346 349 350 352 352 352 352 352 352
308 309 310 314 318 323 332 334 335 337 338 339 341 341 341 340 340 340 341 343 344 341 342 343 343 347 349 352 352 353 353 352 352
303 303 306 308 310 313 314 324 336 337 335 339 340 341 341 341 341 341 341 341 343 344 342 342 343 344 349 352 352 351 353 353 352
300 301 302 305 307 310 311 317 321 334 335 334 340 339 340 343 344 343 341 341 341 342 344 343 341 342 345 348 351 341 339 349 352
299 300 302 302 304 307 309 313 320 328 335 338 336 339 341 342 344 344 344 343 341 340 341 343 342 341 342 345 348 334 335 338 353
297 298 300 301 303 305 307 311 320 331 337 337 337 339 342 342 342 343 344 345 342 340 340 340 341 342 342 342 344 331 331 335 350
297 298 300 301 303 305 307 311 321 330 334 336 338 338 340 345 344 343 343 344 344 343 341 340 341 341 342 342 344 327 327 332 347
298 299 300 301 303 304 305 308 318 325 327 334 334 338 339 340 342 346 344 343 345 346 346 343 342 342 341 336 343 326 324 329 346
298 299 301 303 303 302 304 307 312 319 323 327 337 341 340 338 338 339 348 348 347 347 347 347 344 343 344 341 339 341 321 321 346
297 299 302 303 302 302 304 306 309 315 320 328 336 335 336 337 338 337 341 344 349 348 346 345 345 345 345 345 343 327 321 319 323
298 301 303 302 301 302 304 306 308 311 319 331 331 331 331 331 335 340 340 339 340 347 348 346 345 345 344 346 349 345 322 318 318
299 301 302 303 302 302 303 306 308 311 317 327 327 326 327 330 330 331 336 343 340 340 346 346 346 345 345 346 347 349 349 337 329
299 300 302 303 302 302 304 307 308 310 314 323 322 321 323 327 329 330 332 339 344 345 343 343 347 348 348 346 346 347 338 339 344
298 299 301 302 302 302 303 305 307 310 314 320 318 317 319 322 326 327 330 331 336 320 317 310 310 317 337 349 331 318 313 311 310
298 299 300 300 301 302 303 304 309 311 316 316 313 312 314 317 318 322 325 328 330 333 335 310 306 304 305 311 328 309 310 307 305

GFSFLT1_sfc_thetae_069.txt.gz
Theta_e
335 338 339 338 339 340 342 344 346 346 347 348 350 351 354 356 356 352 352 356 353 353 354 356 363 363 364 362 362 361 361 358 358
330 337 339 339 339 341 342 344 346 347 348 348 349 349 353 354 354 355 354 357 357 354 359 356 361 363 363 362 362 362 362 356 359
328 334 339 340 340 340 342 344 346 347 348 348 349 350 351 351 352 354 355 356 357 358 358 360 360 361 362 362 362 362 362 360 361
330 334 335 340 342 342 343 343 344 345 347 348 348 349 352 351 350 351 353 353 355 358 360 361 360 361 361 362 362 363 362 361 360
316 325 331 337 340 340 341 342 342 343 345 345 346 350 352 350 352 351 350 351 353 357 358 360 361 362 362 362 362 362 362 360 358
306 310 312 317 320 323 337 341 342 342 343 345 345 347 347 349 349 350 350 351 352 353 356 358 358 361 361 362 361 362 362 362 361
304 305 306 308 309 314 319 326 336 342 343 344 346 346 344 347 346 349 351 355 354 352 355 355 356 358 360 362 362 362 362 362 362
305 303 304 305 305 308 310 314 323 334 340 341 345 347 347 347 350 350 347 349 356 354 353 354 356 355 356 358 357 356 361 362 361
304 304 304 304 304 306 307 310 315 325 334 339 342 342 346 351 353 354 353 353 352 356 354 354 355 353 354 354 352 339 340 353 360
303 303 304 305 304 304 306 308 310 320 331 339 341 342 342 348 351 352 353 352 353 353 353 355 353 353 354 355 357 334 335 340 357
303 303 303 305 306 306 307 307 309 315 325 330 336 344 342 346 349 350 353 352 352 352 352 353 353 352 355 355 354 332 330 335 356
302 303 304 305 307 309 310 310 309 309 316 324 328 337 344 347 349 349 350 350 353 352 350 350 352 352 353 353 354 328 326 334 352
302 303 304 305 307 310 310 311 310 309 311 317 323 329 339 343 347 346 351 351 352 353 353 351 350 349 352 344 354 331 323 330 347
303 303 304 306 307 309 310 311 311 309 309 310 319 326 338 339 341 346 346 348 355 353 353 353 353 351 352 353 350 351 322 320 349
302 302 303 305 307 308 310 311 311 311 310 311 317 323 333 334 337 340 344 348 347 354 355 354 353 353 351 352 354 333 326 319 322
301 302 303 305 305 308 309 311 311 311 313 314 314 322 330 330 333 337 340 345 347 346 347 351 352 350 349 351 354 354 322 317 318
299 299 300 302 304 305 306 309 310 311 312 315 313 316 325 328 328 331 336 338 342 344 344 346 348 350 349 351 354 355 356 346 336
298 298 298 299 301 303 305 308 308 310 310 312 314 312 320 324 325 328 332 335 337 343 348 344 345 349 351 350 351 352 341 343 352
298 299 300 300 301 302 303 305 306 308 311 312 314 313 316 320 321 324 328 332 332 318 315 313 312 313 326 350 332 321 312 311 311
302 300 301 300 300 301 301 302 304 307 309 310 313 314 317 318 317 320 322 327 331 329 327 311 308 305 307 307 322 310 309 308 308

GFSFLT1_sfc_thetae_072.txt.gz
Theta_e
332 342 343 343 344 345 346 346 349 350 353 355 357 358 360 362 362 356 356 357 352 353 353 356 362 363 361 362 362 361 361 358 356
333 341 343 342 344 346 347 348 349 352 353 356 357 356 359 360 361 359 356 359 359 355 359 356 362 361 360 360 363 364 365 358 359
334 338 342 344 343 346 347 348 350 352 353 356 357 357 357 358 359 361 360 360 360 359 357 361 361 364 363 361 363 365 366 359 362
321 327 334 335 342 345 347 349 350 350 352 354 355 357 358 357 357 358 360 359 360 360 360 361 363 364 364 363 361 364 366 363 360
312 316 318 321 323 324 336 346 348 349 351 351 354 355 357 356 357 358 356 358 359 360 360 361 363 367 364 364 363 365 364 360 358
308 309 310 310 310 313 318 329 335 346 348 349 350 353 354 354 354 355 356 356 358 359 359 360 360 362 364 364 364 365 365 363 360
305 307 308 308 308 311 315 317 320 333 343 349 350 351 352 353 353 354 355 357 358 358 359 359 359 361 362 363 360 363 364 364 362
305 305 306 307 307 308 312 313 314 321 332 340 348 349 351 352 355 356 356 357 359 359 359 359 359 359 360 361 361 356 361 364 364
310 308 307 308 309 309 308 310 312 315 319 331 338 347 348 351 356 357 357 358 356 359 359 359 359 358 356 356 354 341 340 354 362
309 309 310 311 308 308 311 312 314 312 316 325 329 333 347 350 351 354 357 358 358 357 356 359 361 358 358 358 359 335 333 341 356
308 308 309 310 311 312 312 313 312 316 316 319 322 328 336 345 349 351 354 358 356 358 358 357 359 360 362 362 360 334 330 335 356
307 308 309 310 311 313 316 317 315 315 313 313 315 321 327 336 338 349 351 352 356 356 356 357 356 357 360 362 363 329 328 335 353
307 309 310 310 311 312 314 317 318 317 317 314 313 315 320 327 339 339 344 352 357 362 359 357 356 356 358 348 360 333 324 333 350
308 309 309 310 311 311 314 316 317 316 318 318 318 317 318 323 332 337 336 344 356 356 360 361 359 356 359 359 356 356 322 321 351
307 307 308 309 309 310 313 315 315 315 316 319 320 320 316 317 322 332 331 340 339 351 359 359 358 361 357 357 360 336 328 319 322
305 306 306 306 306 307 309 313 314 313 316 318 318 318 320 317 321 327 333 336 339 337 349 351 357 359 353 353 356 360 326 319 318
304 305 305 306 304 305 306 310 312 313 315 316 316 316 318 320 316 320 328 329 332 335 335 343 346 350 355 358 355 357 359 353 341
305 306 305 305 303 303 305 307 308 309 311 313 312 314 315 318 320 321 324 328 329 333 336 334 343 349 353 353 352 353 341 343 359
305 305 304 303 305 303 304 305 306 309 309 308 309 311 313 315 318 320 322 323 325 317 315 314 311 309 318 346 329 315 315 311 313
305 303 303 304 303 302 303 303 303 305 309 306 307 306 310 313 313 320 321 322 322 322 324 309 307 306 306 307 317 313 305 303 306

GFSFLT1_sfc_thetae_075.txt.gz
Theta_e
340 340 341 342 344 343 343 346 345 348 353 359 360 360 363 364 364 356 354 358 356 354 355 352 367 362 361 361 362 362 363 359 355
331 339 338 342 342 346 343 345 348 349 356 358 360 359 361 363 365 362 358 367 360 356 362 354 363 361 361 361 362 363 366 356 361
333 333 333 332 337 343 345 345 347 348 352 356 359 359 360 360 362 363 362 360 362 362 360 360 355 362 362 361 361 362 365 363 364
321 322 326 329 328 333 338 339 347 348 351 354 357 358 360 360 360 361 362 359 360 362 360 362 361 368 363 362 361 362 366 367 362
316 314 313 321 323 326 325 331 336 341 348 351 354 357 361 359 360 361 359 360 361 364 365 361 362 364 363 363 362 364 364 360 357
310 312 313 311 317 315 315 323 333 337 342 346 350 355 355 357 357 359 359 360 361 365 365 364 358 362 364 361 361 365 366 365 361
311 310 310 311 309 313 314 316 319 329 333 344 345 350 353 355 357 358 358 362 365 361 366 364 363 364 366 364 360 361 362 364 364
308 308 309 310 310 311 313 317 317 318 326 334 340 344 349 354 357 360 358 361 365 364 365 365 365 364 364 364 360 355 364 364 363
309 308 310 310 310 312 313 314 318 319 320 325 332 334 343 353 355 358 361 362 362 365 365 367 367 363 363 363 354 342 339 354 363
312 312 311 312 313 314 315 315 317 318 321 322 324 328 331 338 347 354 355 360 361 362 362 365 367 365 363 364 365 338 334 340 357
311 312 312 314 314 315 315 317 318 320 321 322 321 323 322 327 332 342 349 356 357 360 360 360 363 363 367 367 364 336 331 335 361
311 311 313 314 315 315 318 319 322 323 321 321 322 320 321 323 326 333 339 340 352 362 360 358 358 361 365 367 367 332 329 334 354
310 312 313 313 314 316 316 319 320 320 320 322 322 320 322 323 323 328 338 339 337 349 360 358 357 358 362 353 365 339 326 332 354
311 312 312 313 314 314 316 318 318 319 320 320 322 324 324 325 326 325 329 338 339 341 348 357 358 356 361 365 361 363 325 322 356
308 309 310 311 311 311 313 315 315 316 318 321 322 322 322 324 325 326 322 331 338 338 342 344 354 359 359 363 364 340 330 321 323
307 308 309 310 310 310 312 313 314 313 316 319 320 320 320 321 323 324 327 325 332 331 341 338 340 350 352 355 363 359 329 321 320
307 308 309 310 309 309 310 312 313 313 314 316 315 315 316 318 319 320 323 324 322 324 326 331 333 341 350 354 359 363 359 357 340
307 308 309 308 308 308 309 311 311 312 313 313 312 312 312 314 316 318 322 326 324 323 327 326 331 335 340 341 341 351 329 324 342
308 308 308 307 308 307 309 309 309 310 310 310 309 309 309 311 312 315 317 320 323 313 311 309 306 306 316 332 319 313 314 311 312
308 309 308 307 305 307 307 307 307 308 307 306 307 304 307 308 308 311 314 316 319 321 321 306 305 303 305 306 311 307 303 302 308

GFSFLT1_sfc_thetae_078.txt.gz
Theta_e
340 340 340 341 342 345 342 342 344 352 356 357 360 360 362 363 365 360 356 350 358 353 347 355 366 365 365 368 365 366 366 365 363
332 334 333 337 344 346 343 345 343 352 357 359 361 360 363 363 363 362 363 363 367 356 352 359 360 363 364 365 360 367 366 358 361
323 325 328 331 335 339 343 347 345 352 358 359 360 360 362 362 363 365 365 367 366 369 351 350 349 349 358 364 360 363 365 363 354
314 318 320 326 326 331 337 342 345 342 355 358 360 361 361 361 362 363 365 364 368 367 369 351 346 338 340 355 363 366 365 361 357
313 311 315 319 320 321 323 331 336 335 344 344 358 360 362 361 363 363 363 363 364 369 367 368 354 344 344 356 362 362 363 359 360
313 310 311 315 319 318 319 319 325 333 335 336 342 350 359 360 360 362 362 364 364 366 367 367 364 365 366 366 362 365 361 363 362
312 312 312 313 315 317 319 317 319 323 332 332 336 341 346 352 359 359 360 364 364 364 367 365 364 365 365 364 364 364 363 362 363
311 310 311 313 313 316 317 318 319 318 320 328 333 335 341 342 343 360 368 367 365 366 364 364 365 364 363 364 361 358 361 363 362
311 312 311 312 314 315 316 317 320 322 320 320 327 329 333 336 345 351 355 362 363 367 364 365 364 363 362 360 359 344 340 356 361
312 312 313 313 314 315 318 317 320 320 324 325 323 323 325 329 335 340 345 355 361 364 363 365 363 362 362 361 361 340 333 338 357
312 312 313 314 314 315 318 319 319 323 323 326 325 326 324 325 326 331 340 346 343 349 362 362 362 361 363 363 362 339 334 334 353
312 312 313 314 314 315 320 321 323 324 323 326 325 325 327 326 324 323 329 339 341 343 348 356 358 359 361 361 362 335 330 335 351
312 313 313 313 315 316 317 319 319 319 322 324 323 324 326 328 329 327 326 327 337 341 345 347 354 356 359 349 360 339 329 331 353
312 312 312 313 313 313 314 316 316 317 319 319 322 323 324 326 327 327 330 332 330 337 338 342 347 347 356 357 355 358 327 324 356
309 309 310 311 311 311 313 314 314 314 317 320 321 322 322 324 325 324 323 327 330 330 333 335 340 343 348 354 358 339 335 322 323
308 308 310 310 310 311 312 314 313 312 316 317 318 318 318 319 321 322 324 325 328 327 328 332 333 336 336 343 353 356 330 324 321
308 309 309 309 308 308 310 313 313 312 315 317 315 315 315 316 316 316 318 320 322 322 324 322 325 329 334 343 352 355 358 358 349
308 308 309 309 307 308 308 311 311 311 313 313 309 311 311 312 313 314 316 319 320 321 325 324 325 325 327 327 329 344 330 328 337
308 308 309 308 308 307 308 308 309 311 312 310 306 305 306 307 308 310 311 312 314 312 309 306 304 303 310 323 314 310 308 307 305
309 309 309 308 307 308 308 307 307 308 309 307 305 303 304 304 305 306 308 309 309 310 314 309 304 301 302 302 306 304 301 300 301

GFSFLT1_sfc_thetae_081.txt.gz
Theta_e
330 332 336 337 337 339 340 340 342 344 344 347 350 348 349 349 349 346 345 344 345 347 344 349 351 354 353 352 351 351 351 348 350
327 333 334 337 338 336 341 339 340 344 346 348 350 349 351 351 349 349 345 341 344 349 345 352 350 351 353 353 353 352 352 347 347
319 322 331 332 332 333 339 342 342 347 349 349 351 352 354 354 353 352 352 351 350 348 348 348 346 343 345 350 352 356 351 349 348
314 316 319 324 328 329 331 336 340 341 341 344 348 352 352 352 353 354 352 352 352 349 347 343 343 342 339 344 350 352 350 349 349
311 315 316 318 319 322 325 331 334 335 337 338 338 341 347 352 354 354 353 352 352 353 349 347 343 342 338 341 348 351 351 349 349
309 310 313 315 316 317 320 324 328 333 333 335 337 338 341 345 349 353 351 353 354 355 350 345 340 338 340 347 348 351 352 352 352
309 309 310 313 314 317 318 320 322 323 328 333 335 337 335 339 339 341 346 353 356 356 356 353 352 352 352 352 353 351 353 352 350
309 310 310 311 313 315 319 319 318 319 322 324 329 332 332 335 341 337 339 343 350 354 356 356 355 353 354 354 354 356 353 352 350
307 306 310 312 313 314 316 318 318 319 318 323 324 323 325 330 334 340 343 344 346 349 351 354 356 352 354 352 356 344 341 350 353
308 308 308 309 310 311 312 313 317 318 321 322 322 322 322 324 328 329 335 341 340 338 347 350 352 354 354 351 353 339 335 338 352
308 309 309 308 309 312 313 314 316 318 322 323 322 322 323 324 325 324 327 335 336 335 340 344 350 350 352 353 355 338 336 336 339
308 308 308 308 309 313 313 313 316 317 318 320 319 320 322 325 326 325 324 325 327 335 337 339 343 350 350 350 350 336 329 332 341
308 308 308 308 310 311 310 310 311 312 314 316 315 317 319 321 322 321 321 325 326 327 334 335 337 342 344 344 350 337 327 330 344
307 307 306 308 308 307 308 309 310 310 311 310 313 315 316 317 319 319 318 319 321 324 324 328 333 335 339 344 348 350 330 323 343
305 305 306 307 306 306 308 309 308 307 307 310 311 312 313 314 314 315 316 316 318 320 323 323 324 329 333 338 344 333 333 324 321
304 304 305 305 304 304 307 308 307 305 307 309 309 308 309 309 311 312 312 310 311 313 314 318 318 319 321 329 334 342 327 321 321
303 303 303 303 302 303 304 306 306 305 307 307 305 303 304 305 305 306 307 309 311 312 313 315 317 318 320 323 323 336 339 340 339
302 303 303 303 302 302 302 304 304 305 305 303 301 301 301 301 302 302 304 305 307 308 309 309 308 309 312 313 316 319 324 324 330
302 302 304 303 302 301 302 302 302 303 302 302 300 299 299 300 300 300 301 302 303 305 304 303 301 300 302 310 308 306 304 302 301
307 303 305 301 302 302 301 301 300 302 302 301 299 296 297 298 299 299 300 301 301 301 304 304 302 300 301 302 300 300 298 298 299

GFSFLT1_sfc_thetae_087.txt.gz
Theta_e
330 332 332 333 333 335 337 338 341 343 341 340 339 340 343 343 341 337 336 340 342 342 343 345 347 348 347 346 347 344 344 345 345
323 328 333 333 335 337 337 338 340 343 343 341 341 340 342 343 341 340 337 338 342 343 344 345 346 348 349 348 347 345 346 344 342
321 324 325 330 333 337 338 338 341 342 345 344 344 341 341 343 343 343 342 342 340 340 342 343 346 348 349 348 347 345 345 344 343
318 320 323 325 328 337 339 341 342 342 341 343 340 343 343 344 344 344 343 343 342 340 341 344 348 346 346 347 346 347 346 345 344
316 318 320 322 325 329 335 338 340 341 340 338 338 339 340 342 344 345 344 344 345 345 346 344 343 344 342 342 342 345 346 346 347
314 316 316 320 323 324 326 331 337 338 338 337 338 338 338 338 336 339 342 344 346 347 345 343 342 342 339 338 337 342 345 346 345
311 313 314 316 318 320 323 324 327 334 338 339 338 338 338 336 336 336 337 337 338 341 345 345 342 341 340 337 337 339 344 346 345
308 309 312 314 315 317 319 321 323 326 329 332 336 336 336 335 337 337 339 339 338 338 339 343 347 343 340 339 339 342 341 345 347
306 308 309 312 314 315 316 318 321 324 323 325 326 327 329 332 333 332 333 338 337 336 337 339 339 344 345 344 348 338 337 344 346
307 310 310 312 313 315 316 317 317 318 320 322 322 322 324 325 326 325 325 327 328 333 334 334 335 338 343 345 346 335 332 338 346
309 310 311 312 312 312 314 317 319 319 320 319 320 320 321 323 324 324 325 326 325 326 328 328 329 330 333 338 343 330 327 331 338
307 306 309 308 309 310 312 313 314 312 312 312 312 313 314 316 317 317 317 317 319 322 323 325 327 330 331 332 333 327 324 328 338
305 306 306 306 306 307 307 306 307 307 306 307 307 309 310 312 312 314 314 313 315 317 319 323 326 327 329 328 331 326 322 324 337
304 305 305 305 305 305 304 304 306 304 303 303 305 306 306 306 307 308 309 311 311 312 313 315 317 321 325 326 327 329 317 316 331
303 303 304 304 303 302 302 303 304 301 301 301 302 302 302 302 302 304 304 304 307 309 309 309 310 309 313 317 314 314 314 311 311
302 303 303 303 303 301 301 302 301 299 299 300 300 299 298 298 299 300 300 300 302 304 305 305 304 305 305 307 314 312 312 309 308
300 301 301 301 300 299 299 300 300 299 299 299 298 297 296 297 296 296 296 299 300 300 301 302 302 303 302 303 305 306 308 307 305
300 299 299 300 298 298 298 298 298 298 298 297 295 295 295 295 295 294 295 296 297 298 299 299 299 300 300 300 301 303 302 299 301
299 298 298 298 297 298 297 298 297 297 297 296 294 293 294 294 293 293 294 294 294 299 299 299 297 296 297 301 300 299 297 295 296
301 299 298 298 298 297 297 296 296 297 296 296 294 292 292 293 294 293 293 293 293 293 296 299 298 296 296 297 297 296 295 295 295

GFSFLT1_sfc_thetae_090.txt.gz
Theta_e
329 329 329 331 334 336 338 338 342 342 341 340 341 343 344 343 343 343 342 344 345 346 347 349 352 352 352 351 350 348 349 350 350
327 331 332 332 334 336 337 339 340 342 342 341 341 343 344 344 343 341 340 341 346 347 348 349 351 351 351 351 351 350 350 349 349
323 326 328 333 334 335 337 339 341 344 343 341 342 342 342 345 344 343 343 344 343 345 347 349 348 350 350 350 351 351 350 350 349
321 323 325 327 330 337 338 340 342 343 345 345 342 343 344 345 345 346 347 345 345 345 345 345 346 348 350 351 349 351 349 350 349
319 321 322 325 328 331 338 339 341 341 341 341 341 341 342 344 347 347 348 345 347 349 347 347 346 348 349 349 350 350 351 350 351
317 317 319 322 326 328 330 336 339 339 339 339 339 339 338 337 337 340 341 344 347 348 349 348 346 346 345 344 344 346 349 350 348
314 316 317 319 321 324 326 329 333 337 337 338 339 338 338 337 338 339 339 339 340 341 346 348 347 346 345 345 343 342 344 348 349
311 312 314 317 318 320 322 325 327 331 331 334 338 338 339 337 337 338 340 340 340 340 341 342 346 348 346 345 343 342 343 346 349
308 310 312 314 316 318 320 322 324 326 327 328 330 330 332 335 333 331 333 336 337 337 338 339 342 342 346 347 349 337 334 343 349
307 309 311 313 314 315 316 317 320 321 322 325 325 325 326 327 327 326 327 328 329 332 331 333 333 334 336 339 343 329 328 333 343
308 309 311 311 312 314 317 318 317 317 317 317 318 317 318 320 321 321 324 324 323 325 327 329 330 331 333 335 336 327 324 328 339
307 310 310 310 313 314 313 312 313 311 311 312 311 311 312 314 317 315 316 316 318 320 321 325 325 329 330 332 332 314 315 323 337
308 308 309 309 309 311 309 309 310 309 308 308 306 307 308 310 311 312 312 313 315 317 318 321 325 326 325 321 324 312 311 318 326
306 306 306 307 306 305 306 306 306 304 304 303 304 305 305 305 306 307 307 311 311 312 314 314 315 316 318 319 315 314 310 309 312
304 304 305 305 303 303 304 305 304 301 301 302 303 303 303 302 302 303 303 305 306 308 308 309 307 310 310 312 313 313 309 308 308
304 304 303 303 302 301 302 303 302 300 301 302 301 300 300 300 301 301 302 302 302 303 304 304 304 305 303 304 307 308 308 306 307
304 304 302 303 302 301 301 301 301 301 301 301 300 299 298 299 299 299 299 300 301 300 300 300 300 301 300 302 304 306 305 304 305
303 303 303 302 301 300 300 300 300 300 300 299 298 298 297 297 298 297 298 299 298 299 300 299 299 300 300 300 300 301 300 298 300
302 302 302 300 300 300 299 299 299 299 299 298 297 297 297 297 297 297 297 297 297 299 298 298 296 296 297 301 299 297 295 294 295
302 301 301 300 300 300 299 299 299 299 299 298 297 296 296 296 296 297 296 296 295 295 297 298 296 295 296 296 295 294 293 293 294

GFSFLT1_sfc_thetae_093.txt.gz
Theta_e
336 335 335 338 341 341 338 340 345 345 348 351 352 351 353 356 357 352 354 356 356 354 358 363 363 362 361 360 360 359 360 356 358
333 335 333 336 341 343 343 339 344 348 348 350 350 350 352 354 355 355 354 356 358 357 359 356 360 361 361 361 361 360 358 355 358
329 333 334 336 339 342 344 342 341 346 345 349 351 350 351 356 357 357 356 355 353 356 358 358 359 359 360 360 361 361 360 357 358
325 328 331 333 338 340 342 341 341 344 346 350 349 345 348 352 356 356 356 355 356 356 356 356 357 358 357 359 360 359 360 360 359
327 327 328 330 334 339 341 342 342 343 346 349 349 350 346 346 353 355 356 356 356 357 356 357 357 357 357 357 357 361 360 357 355
322 324 325 327 331 334 340 342 343 341 342 344 343 342 340 341 343 354 356 356 357 357 358 359 358 357 356 357 356 357 358 359 358
320 321 323 324 326 328 332 341 342 344 343 344 343 341 340 340 343 346 349 350 352 353 357 359 359 359 358 356 355 354 353 354 356
317 319 320 322 322 324 327 330 334 337 340 341 340 339 338 339 341 345 346 348 348 349 350 352 357 358 358 357 354 352 352 352 352
316 318 318 319 320 322 323 325 328 329 331 333 340 340 339 339 341 335 335 344 345 345 345 346 349 351 352 352 348 331 333 343 353
316 317 317 317 318 317 319 321 323 324 326 328 328 329 330 331 332 333 331 332 335 337 338 339 339 340 344 345 342 324 325 331 354
317 318 319 319 320 318 317 318 318 318 320 321 321 320 320 322 324 325 329 330 328 329 332 334 335 336 338 333 321 316 321 327 348
318 318 319 320 322 319 315 314 315 314 312 313 314 314 315 317 318 318 319 320 323 325 328 330 332 333 338 325 317 312 314 333 344
316 317 316 317 315 314 314 313 312 310 309 308 307 309 310 312 312 313 314 316 320 323 326 328 328 326 324 318 314 310 310 318 325
317 315 315 314 316 313 310 311 313 310 310 307 308 309 311 312 312 309 312 315 317 317 318 320 321 320 321 318 317 310 308 308 314
314 315 315 316 315 315 315 315 312 309 307 308 309 309 309 310 310 310 309 312 313 313 313 313 315 316 314 313 313 308 307 307 307
314 314 313 314 313 312 312 312 313 311 309 310 310 309 308 309 309 308 309 309 309 310 310 308 306 308 309 309 311 310 307 306 307
312 312 311 312 311 311 310 311 311 310 309 309 309 308 307 307 307 307 307 307 307 307 306 306 307 306 304 304 306 306 306 306 306
311 311 311 312 311 311 310 310 309 308 308 308 306 306 306 306 306 306 305 305 305 306 305 304 305 304 305 304 302 300 298 297 301
310 310 311 311 311 311 309 309 308 307 307 307 306 305 305 305 305 305 305 304 303 298 299 297 295 296 299 304 297 295 294 293 293
311 311 311 309 309 311 309 309 308 308 307 306 306 304 304 303 304 303 302 302 302 301 299 297 295 294 295 295 294 294 292 292 293

GFSFLT1_sfc_thetae_096.txt.gz
Theta_e
339 340 339 340 342 341 344 350 350 348 353 357 358 358 360 361 361 353 357 356 355 363 358 355 362 360 360 362 362 362 364 358 355
336 340 341 341 344 347 349 346 348 346 347 353 357 357 358 359 362 360 355 359 359 367 366 359 360 359 358 359 360 362 364 355 360
336 340 342 342 344 346 345 344 345 346 351 351 354 355 357 357 355 356 356 359 360 361 362 364 361 359 358 359 359 363 365 358 360
334 339 341 342 345 348 349 345 343 344 345 348 353 354 356 356 356 354 355 355 356 358 360 363 363 362 358 359 357 359 361 361 359
331 334 335 338 344 345 345 347 344 342 344 344 348 355 355 353 355 356 354 355 356 360 358 364 363 362 362 361 359 360 359 357 357
329 330 331 334 339 342 345 344 342 342 345 349 350 348 349 350 350 353 355 356 356 359 360 360 357 358 358 360 360 359 361 362 359
326 328 329 328 331 338 341 344 346 346 346 347 347 345 344 343 344 347 351 354 357 358 360 361 357 358 358 359 361 361 360 360 360
326 328 331 328 326 329 331 338 347 348 347 348 350 345 342 344 346 348 350 353 355 358 359 358 361 361 361 362 360 357 360 359 358
325 327 328 327 325 327 327 328 334 342 345 346 350 345 344 344 347 346 345 347 350 351 352 355 357 357 359 360 356 327 332 345 358
326 327 328 326 324 324 325 325 327 328 330 334 335 336 337 337 339 341 339 335 337 344 347 349 348 351 353 342 338 319 323 331 356
326 326 323 325 322 321 320 319 319 324 323 324 325 326 325 328 331 333 335 333 334 337 340 347 348 346 346 335 321 314 318 326 351
329 329 329 326 325 320 318 317 317 316 317 319 318 320 322 321 321 323 329 331 335 339 341 342 342 344 337 329 321 311 312 328 351
326 327 329 329 324 317 315 314 315 312 311 311 311 314 316 318 320 320 321 324 324 329 331 336 337 337 331 319 322 308 309 317 335
325 326 325 325 323 319 317 315 312 310 309 308 308 311 312 314 315 316 318 320 321 324 330 331 331 330 329 325 319 313 307 308 311
322 322 322 320 317 314 313 316 317 312 309 310 312 313 312 313 315 314 317 319 319 323 323 323 326 325 322 322 321 307 307 307 307
321 321 320 321 320 320 320 317 315 311 312 314 314 312 312 312 314 319 319 318 315 314 319 317 315 316 317 319 317 316 307 307 308
321 322 321 321 320 319 318 319 318 318 317 316 315 313 313 313 314 316 318 317 317 317 314 314 315 315 312 313 315 310 307 305 309
321 321 320 320 320 319 318 318 317 316 316 315 314 312 313 313 312 314 313 313 311 313 309 306 312 313 314 312 312 303 297 297 301
321 321 321 320 320 319 318 317 316 315 314 313 312 311 310 311 311 311 312 310 307 298 299 297 295 295 299 306 296 295 294 293 293
318 320 319 317 317 318 318 316 315 315 314 313 311 310 311 309 306 309 309 309 308 304 298 297 295 295 295 295 293 294 293 292 293

GFSFLT1_sfc_thetae_102.txt.gz
Theta_e
333 334 337 337 338 337 344 349 353 352 357 359 360 359 362 364 367 358 359 362 356 348 348 347 355 363 364 366 365 365 366 365 362
329 331 334 337 337 342 339 339 349 351 356 357 360 359 363 365 366 366 364 364 371 361 349 348 345 339 360 363 359 363 361 363 362
327 329 334 336 337 338 335 337 345 353 359 357 358 355 360 360 361 363 366 367 364 361 345 340 342 344 355 362 361 364 367 364 360
333 337 337 337 338 344 335 337 351 352 355 355 358 356 354 362 361 361 362 364 365 367 349 344 343 353 361 358 364 365 364 364 363
341 339 339 336 340 343 346 346 352 349 348 349 352 352 355 357 351 354 359 354 348 360 364 362 364 366 361 362 360 361 361 361 359
340 345 342 342 343 347 351 350 349 350 348 348 347 352 352 352 357 356 359 357 349 349 358 365 364 365 360 357 360 358 359 361 360
337 340 342 345 346 347 348 351 350 348 348 348 348 347 348 349 349 351 350 352 355 356 357 356 355 361 358 357 361 359 359 359 359
334 334 335 340 338 341 346 349 350 351 350 349 347 346 347 348 350 346 347 349 348 351 350 352 353 355 359 345 342 336 339 346 353
330 332 333 334 335 338 336 342 347 348 348 347 350 349 347 349 351 350 350 349 348 347 347 349 350 350 352 342 334 323 326 333 352
331 331 331 332 332 332 330 331 338 339 350 351 351 351 351 350 350 351 350 350 350 349 346 345 345 346 340 326 320 316 319 325 341
331 330 330 331 329 327 324 324 327 327 330 339 340 339 345 346 347 345 345 345 344 344 346 342 343 343 337 329 315 313 316 323 339
332 331 331 330 328 324 321 319 321 322 321 321 326 327 329 334 338 338 338 340 343 344 343 339 344 345 339 329 315 311 311 325 339
332 329 328 326 323 321 318 317 318 317 318 317 314 315 318 326 329 332 333 334 335 340 344 346 340 336 333 325 318 309 309 312 328
331 330 327 325 321 317 315 316 315 313 312 312 314 316 317 318 320 325 328 330 332 334 334 342 339 335 329 321 318 311 309 308 317
328 326 326 325 320 317 317 317 316 313 312 314 315 315 316 319 320 321 319 326 328 330 330 332 333 335 334 328 319 311 308 308 308
326 327 326 327 323 320 318 318 316 313 312 317 316 315 315 314 317 319 321 322 322 323 325 322 326 326 327 326 320 311 308 308 309
326 326 325 324 322 320 320 323 323 317 316 316 316 316 316 315 315 315 319 319 320 319 321 320 322 323 322 325 323 317 311 307 306
326 327 326 326 326 323 321 322 319 320 323 323 319 319 317 318 317 316 316 303 301 307 297 298 303 305 313 311 309 301 296 297 301
325 325 327 327 327 326 325 325 325 324 323 323 320 317 315 315 315 315 317 312 305 298 298 297 295 295 300 301 297 296 295 294 294
322 326 326 328 328 328 327 326 324 324 324 323 322 321 326 318 315 317 317 317 314 305 297 298 296 295 296 295 294 295 294 293 294

GFSFLT1_sfc_thetae_105.txt.gz
Theta_e
331 332 335 336 332 335 339 341 346 347 349 349 349 351 349 348 350 348 347 349 345 344 343 346 348 349 350 351 352 352 351 348 350
327 330 334 335 338 337 343 341 346 349 349 349 351 349 351 348 351 348 348 349 348 348 348 349 347 344 340 344 351 353 351 349 346
327 328 332 335 338 339 342 342 342 347 350 350 351 350 352 350 349 350 349 348 343 343 342 343 345 340 340 343 352 350 350 349 349
326 327 330 334 338 338 339 340 341 342 341 350 349 351 351 351 350 350 348 348 348 345 341 338 337 342 346 351 352 351 349 349 348
329 329 329 336 337 336 335 335 339 339 341 346 350 351 348 349 348 343 346 344 345 347 345 344 343 349 352 351 351 350 350 351 350
329 328 332 334 336 336 336 336 338 344 345 346 347 346 346 345 341 343 347 346 343 345 350 349 351 351 350 350 350 349 350 351 350
333 331 333 333 333 335 336 340 345 345 344 342 342 342 343 340 342 343 346 346 347 346 347 346 348 350 352 349 343 342 343 346 348
332 334 335 334 334 338 339 342 342 342 342 341 342 340 341 341 342 341 342 341 341 342 343 345 349 350 342 340 334 330 333 336 343
329 330 332 333 334 335 335 337 341 343 343 342 342 342 341 344 344 342 342 343 341 342 342 342 346 342 337 330 324 319 322 326 333
328 330 328 330 330 327 328 330 332 333 340 344 343 343 343 343 343 342 344 345 343 340 338 341 343 331 321 313 312 315 318 324 327
328 328 329 326 325 323 324 325 326 327 336 340 339 341 341 342 342 340 339 338 338 337 338 339 334 330 324 314 309 313 315 324 332
328 327 327 325 323 321 320 322 323 325 323 326 326 326 330 335 336 333 334 332 336 337 337 337 336 331 322 313 307 311 312 322 328
325 324 322 320 320 318 317 318 320 319 318 318 317 317 323 327 328 328 325 326 328 329 332 336 329 327 322 316 307 310 310 315 315
324 322 319 319 318 316 315 316 316 314 315 315 317 318 319 320 321 324 323 323 325 325 328 332 329 322 317 315 308 306 308 309 306
323 320 318 316 315 314 315 315 314 312 311 314 315 316 317 318 319 319 320 320 322 323 323 325 328 327 318 313 310 310 308 308 309
321 320 319 317 315 314 314 315 313 311 310 311 312 311 312 313 314 316 318 317 316 316 320 318 320 324 323 313 307 304 308 306 308
322 322 319 317 315 312 311 312 312 310 311 313 311 310 309 309 309 310 312 307 310 306 307 310 311 309 313 316 311 306 301 301 301
321 321 320 318 316 314 313 314 311 311 311 311 310 312 311 310 311 311 302 297 301 299 297 297 303 300 301 305 303 295 295 295 296
321 321 322 321 319 316 315 314 312 313 314 314 312 309 310 310 310 307 303 298 294 298 297 296 295 296 301 296 296 296 295 293 293
319 321 321 321 318 319 318 317 316 316 314 314 314 311 311 309 308 307 308 305 301 295 293 297 295 294 295 296 296 295 293 293 293

GFSFLT1_sfc_thetae_108.txt.gz
Theta_e
330 332 332 333 333 335 337 342 342 344 343 341 346 344 343 344 346 344 343 341 344 345 343 342 345 347 348 349 349 346 348 345 346
327 331 334 333 333 336 337 340 343 345 344 344 345 346 345 345 346 345 345 347 344 344 346 346 345 347 343 341 347 348 348 345 344
327 330 332 333 335 339 340 339 338 344 346 346 347 347 347 344 347 346 346 345 344 346 347 345 346 343 340 340 344 348 347 347 346
326 328 330 334 336 340 341 342 343 340 342 347 348 347 347 346 348 347 346 344 343 342 341 340 341 339 339 343 347 348 346 345 347
326 328 331 335 335 335 337 338 339 340 339 342 346 345 346 348 348 347 346 345 345 342 340 338 335 338 344 348 349 348 347 346 349
326 327 331 334 335 333 335 336 337 339 339 340 346 345 347 347 345 342 346 343 342 343 345 346 343 346 347 348 347 347 347 347 347
328 327 331 333 333 334 334 336 336 338 341 345 344 344 345 343 341 341 345 345 342 342 344 342 344 345 346 341 337 337 339 343 344
331 326 330 332 333 333 333 335 341 341 342 342 342 341 340 340 341 342 342 342 343 343 343 342 343 341 338 334 332 329 330 335 337
331 328 331 332 333 335 335 338 337 341 341 340 340 339 338 340 339 338 337 340 342 342 341 340 342 337 331 325 321 319 321 325 331
330 331 332 331 331 333 335 335 340 335 341 341 339 339 340 342 340 340 340 342 341 338 337 340 331 321 315 310 312 317 319 325 328
327 328 327 327 324 325 325 328 329 335 341 341 339 339 340 340 339 339 338 336 335 333 335 334 325 320 315 309 309 315 319 329 335
327 326 324 324 324 323 323 326 327 328 331 332 334 336 339 339 338 337 334 333 333 333 333 331 327 321 315 308 306 312 317 325 335
320 320 319 319 321 321 322 321 324 324 321 323 322 324 326 331 332 331 328 328 327 327 334 333 328 320 314 311 305 310 312 313 319
320 318 317 317 318 316 316 321 320 319 319 317 319 320 321 323 326 325 324 323 323 325 330 326 322 320 314 308 305 305 309 309 306
317 316 315 317 315 314 315 317 317 315 315 317 319 318 320 320 320 322 322 322 322 321 327 325 322 314 311 310 306 307 307 308 309
318 316 315 317 314 314 314 314 313 311 311 312 313 314 313 315 315 316 316 316 315 314 319 323 324 323 315 308 306 305 306 307 308
318 316 313 312 311 310 308 310 310 309 309 310 308 307 307 308 309 306 304 309 308 305 306 308 309 308 313 309 308 304 299 297 297
320 317 315 314 313 311 310 310 307 308 308 308 307 307 306 306 305 301 297 297 298 298 297 299 302 302 303 306 303 300 296 295 296
317 316 315 314 313 311 311 310 308 308 308 309 308 306 306 307 307 304 298 296 294 297 296 296 295 296 297 295 297 296 294 293 293
317 317 317 316 313 313 312 310 309 310 310 310 308 305 305 305 306 304 302 299 296 294 292 296 294 294 294 296 296 294 293 293 293

GFSFLT1_sfc_thetae_111.txt.gz
Theta_e
330 331 330 331 332 332 335 339 341 342 340 339 342 341 342 342 343 342 341 340 339 341 342 342 343 345 348 346 345 340 346 345 344
328 330 332 331 332 334 335 337 340 341 340 339 342 342 341 341 343 342 342 342 342 342 343 343 344 346 345 346 347 347 346 344 342
326 330 333 333 332 335 337 340 340 341 342 340 342 343 341 342 342 343 344 345 343 342 343 345 340 343 342 340 342 345 347 345 344
325 329 332 334 334 337 338 341 342 343 342 342 344 344 344 343 343 344 344 344 344 343 342 341 341 342 339 337 342 345 346 345 345
326 329 332 334 337 337 338 340 341 341 340 343 345 345 345 344 344 344 344 343 343 342 339 338 336 337 336 341 346 346 346 344 348
326 328 331 334 335 335 336 337 336 337 338 338 342 344 343 344 344 344 343 341 342 343 341 340 339 340 342 345 345 345 345 346 347
325 329 330 332 333 332 333 335 336 336 338 340 342 344 345 344 344 344 344 345 342 341 342 340 343 344 344 343 338 339 339 342 344
325 328 330 332 332 332 332 334 335 337 340 342 343 344 341 343 345 346 344 344 342 343 342 342 342 341 338 334 333 330 329 333 336
324 327 328 330 332 333 333 335 338 338 340 341 341 341 342 342 343 343 341 340 340 341 341 341 343 337 332 327 328 322 321 326 330
328 328 330 330 330 333 334 335 337 338 339 340 338 338 339 340 338 337 338 339 340 340 339 339 331 324 318 313 313 317 320 324 327
327 326 326 327 326 327 327 330 333 336 338 339 339 337 337 338 338 339 339 339 337 335 336 329 320 314 312 310 312 317 323 331 334
324 325 324 324 324 323 325 327 327 334 333 336 338 337 339 338 339 336 335 333 332 333 331 323 318 314 310 307 307 313 318 329 326
319 318 319 321 323 323 323 324 327 327 331 334 333 335 337 336 336 334 332 331 331 331 330 326 320 315 309 309 304 310 311 322 321
317 316 316 318 317 317 320 324 323 321 321 320 325 328 328 329 329 329 329 328 329 331 329 322 318 314 309 304 304 306 309 309 310
315 314 316 317 315 314 316 318 319 318 317 320 323 326 325 323 323 325 322 323 324 327 325 322 319 314 308 306 304 307 307 308 309
316 315 315 316 314 313 313 314 315 313 312 315 316 316 316 317 316 316 317 317 316 318 325 325 319 314 310 305 305 301 304 305 305
315 314 313 313 313 312 311 310 309 310 309 310 308 309 309 311 311 307 307 309 310 310 311 312 312 312 317 308 309 304 300 299 297
315 313 311 311 309 308 307 306 307 308 308 306 305 304 304 304 304 300 298 296 299 300 295 299 303 302 308 306 306 303 299 296 294
315 312 313 312 311 310 309 306 305 306 306 306 306 304 305 305 304 299 297 296 294 297 296 295 294 295 298 296 298 296 294 293 294
314 313 313 312 312 310 309 308 306 306 306 308 307 305 304 305 306 304 299 297 297 296 295 296 294 293 294 295 296 294 293 292 293

GFSFLT1_sfc_thetae_114.txt.gz
Theta_e
329 329 329 332 333 332 335 337 340 341 340 340 343 343 342 343 344 343 343 344 344 345 345 346 348 348 352 350 348 343 345 349 349
327 330 330 331 332 332 335 337 339 341 340 340 342 343 343 343 345 344 344 345 345 344 347 347 347 349 351 350 351 351 351 350 348
326 330 330 331 332 333 334 338 340 341 341 340 342 343 342 343 344 346 345 347 346 346 345 346 346 347 347 348 348 350 351 351 350
327 328 331 331 333 334 335 337 339 340 341 340 341 344 343 343 344 345 346 346 346 346 347 347 346 345 346 344 344 348 350 349 350
326 329 331 333 333 335 335 338 339 339 341 341 343 345 345 344 345 346 346 345 346 345 344 344 344 346 344 342 345 350 350 348 351
326 328 330 333 334 335 336 338 340 341 342 342 345 345 345 344 345 345 345 345 345 345 343 343 342 340 340 343 350 350 350 349 348
326 327 331 333 334 335 336 337 339 340 340 343 344 344 344 343 343 344 344 344 343 344 343 343 345 345 347 349 347 347 346 345 347
325 327 330 331 332 333 335 335 336 337 338 340 342 342 344 343 344 345 345 343 343 344 345 344 343 344 344 341 340 336 335 338 340
325 327 329 331 332 333 333 335 335 337 339 340 342 343 340 341 344 342 343 343 342 343 342 342 343 340 337 336 333 322 323 326 333
324 328 329 330 331 332 333 335 336 335 338 341 340 339 340 340 341 341 341 341 340 340 339 340 340 334 328 322 319 319 321 325 329
327 328 328 328 329 330 329 332 337 339 339 338 337 337 338 340 339 339 338 339 340 339 339 336 329 321 316 316 318 317 322 329 337
323 323 324 324 325 325 326 328 332 335 337 337 338 336 336 338 339 339 339 339 338 336 334 326 321 318 315 315 314 313 320 330 329
319 320 321 321 323 323 323 325 331 334 333 335 335 335 335 338 340 339 335 334 335 336 330 324 318 314 312 310 311 310 312 323 322
317 318 318 318 318 317 319 323 325 324 323 322 327 328 329 330 332 333 333 332 334 334 327 322 318 314 310 310 309 309 309 310 320
316 316 317 318 316 316 318 322 319 317 316 321 324 326 323 322 323 326 328 328 330 332 327 321 320 312 308 307 307 307 307 307 309
315 315 315 316 315 313 314 316 317 315 316 317 319 319 318 320 319 320 321 320 323 327 325 321 316 313 310 308 308 305 304 304 304
314 315 314 314 314 312 310 310 311 311 311 312 311 311 313 314 315 312 311 312 312 318 318 321 321 320 316 310 309 309 305 303 303
314 313 312 311 310 309 309 310 310 310 309 309 307 307 307 307 304 304 302 298 300 302 299 303 309 309 314 313 311 309 301 299 300
312 311 312 311 312 311 309 309 309 309 309 309 307 306 307 307 304 302 302 301 299 297 297 295 294 295 303 303 300 296 294 293 294
314 313 314 313 313 312 311 307 307 308 309 312 310 309 309 309 307 306 303 302 303 304 301 296 294 293 294 295 296 294 293 292 293

GFSFLT1_sfc_thetae_117.txt.gz
Theta_e
332 331 332 335 339 340 342 342 345 346 346 348 352 353 354 355 356 352 352 356 358 354 353 354 358 359 362 363 360 358 356 355 358
330 328 332 335 339 338 342 343 345 346 347 348 351 352 354 354 356 355 353 356 356 354 356 355 357 357 358 361 360 359 359 354 358
330 331 330 335 338 339 342 344 346 348 348 348 350 352 353 353 354 357 357 356 356 356 356 357 358 356 356 359 360 361 361 361 360
330 330 330 333 335 336 340 345 346 348 349 350 349 351 353 353 353 354 356 356 358 358 357 356 355 356 356 357 357 357 358 360 360
330 331 332 333 335 335 340 342 345 346 349 349 351 352 354 353 354 355 355 356 357 357 356 356 356 356 354 354 355 355 357 357 356
332 333 333 334 334 335 337 341 344 346 348 349 351 352 353 353 353 354 355 356 356 356 356 355 353 352 351 354 354 354 357 360 359
331 332 334 336 337 334 337 344 345 346 347 346 351 351 352 352 353 354 355 357 354 353 354 354 354 355 355 354 355 358 359 357 357
330 331 333 336 338 339 338 338 344 348 345 345 351 349 351 353 357 354 356 353 353 352 352 353 354 353 353 355 354 353 352 354 353
329 331 333 336 337 337 335 336 340 342 347 346 347 351 351 354 351 348 351 349 351 351 349 347 351 350 342 340 344 324 324 331 347
330 331 333 336 336 335 335 335 338 338 341 345 346 347 348 347 345 347 345 345 347 347 344 343 346 343 337 336 327 320 322 324 338
328 328 330 333 336 335 337 340 341 338 339 340 340 339 340 342 341 341 343 343 342 343 342 341 339 333 327 323 321 316 321 328 340
325 325 325 326 328 330 333 336 343 342 341 341 341 338 341 340 341 340 339 338 341 341 342 338 330 324 321 321 319 313 321 333 339
323 324 324 323 324 325 326 327 332 337 338 339 339 336 337 340 340 341 340 340 339 337 336 331 325 322 320 315 319 311 313 329 340
322 323 322 322 322 320 322 325 329 329 331 329 333 333 334 333 330 335 337 336 336 332 327 325 324 321 319 316 316 313 310 312 335
321 321 321 322 321 319 320 321 321 320 321 325 328 328 329 330 328 326 327 331 334 329 325 322 320 318 315 314 310 308 306 308 310
324 323 321 320 319 317 317 318 319 314 315 319 321 322 321 320 324 322 320 324 328 329 328 324 322 317 312 310 310 309 305 305 306
323 323 321 322 320 315 314 314 314 314 315 316 316 314 315 317 313 314 316 314 319 323 325 324 320 319 318 313 312 312 310 309 310
323 322 320 319 319 317 316 316 315 315 315 316 314 314 311 308 308 307 307 306 308 311 305 305 317 314 320 319 314 312 303 302 306
320 319 319 319 317 316 315 314 314 316 316 317 314 312 312 311 309 307 307 306 303 298 298 298 295 296 306 307 301 296 295 294 294
318 322 322 320 318 316 315 314 314 318 321 319 318 317 317 314 313 312 312 312 312 312 304 296 295 294 296 296 297 294 293 293 294

GFSFLT1_sfc_thetae_123.txt.gz
Theta_e
337 336 335 335 338 341 347 347 348 350 352 354 355 357 358 361 359 354 353 357 353 352 352 352 361 362 361 362 363 362 364 359 357
331 335 336 337 338 341 347 347 349 351 352 354 354 355 357 360 359 358 354 365 360 356 360 356 360 360 362 362 361 362 364 357 358
333 335 338 338 338 339 344 347 351 351 353 353 354 353 354 355 356 359 358 365 361 359 366 363 362 362 361 361 361 363 367 362 365
331 332 334 339 338 341 345 348 349 352 352 354 353 353 358 358 356 357 359 358 361 363 365 363 362 364 365 363 361 362 366 363 364
332 336 336 339 341 341 343 348 349 351 353 352 353 356 361 359 359 358 356 357 358 364 364 367 367 365 364 363 363 364 363 361 358
333 336 337 338 341 343 343 349 350 350 352 354 353 357 354 356 356 357 358 358 359 361 363 362 360 364 364 363 362 362 362 362 360
333 336 337 336 337 339 348 351 354 355 353 354 356 354 354 357 355 355 356 359 363 360 361 362 360 361 361 361 359 359 360 361 360
334 332 333 335 336 335 341 348 351 352 356 357 356 356 355 357 363 360 362 361 363 363 362 360 359 358 359 360 358 353 359 359 359
332 334 336 338 339 339 336 343 347 349 347 357 359 358 357 362 365 361 360 360 360 361 359 359 359 359 357 357 355 328 330 336 352
331 336 336 339 342 336 338 339 345 348 349 351 354 355 356 356 358 358 358 358 362 360 359 360 357 356 353 351 337 324 323 326 342
330 332 337 333 339 343 341 341 342 344 345 345 348 353 353 355 356 356 357 354 356 357 356 354 352 348 345 346 322 318 322 330 345
324 325 328 329 334 341 339 339 340 338 339 340 341 345 348 351 349 347 346 350 347 348 350 350 345 337 332 329 322 315 318 327 345
326 324 325 326 328 334 338 340 340 336 335 337 336 338 341 346 350 347 346 349 350 349 347 342 328 324 322 322 322 311 313 317 333
325 325 324 324 323 324 326 331 341 339 339 337 339 340 338 338 338 339 340 339 339 333 325 323 320 319 318 315 313 310 309 311 321
326 325 324 323 320 319 321 325 327 326 328 333 337 335 336 335 336 336 336 330 327 325 324 320 317 315 313 313 310 307 308 310 312
326 323 322 323 318 316 317 319 321 318 321 325 326 326 325 326 326 328 330 333 328 327 324 322 319 318 317 315 315 315 311 308 312
326 325 324 324 320 317 316 317 318 318 320 321 319 319 320 319 320 326 331 328 325 329 328 324 323 320 318 316 316 319 320 319 317
325 327 325 325 324 320 320 321 321 319 318 318 314 314 316 316 314 314 314 318 321 319 311 320 325 325 323 321 319 320 311 307 315
325 326 325 322 320 318 319 321 320 324 324 324 320 316 315 316 316 316 313 308 305 300 303 302 303 304 311 317 303 298 296 296 296
319 321 321 321 321 322 323 324 324 326 327 328 326 320 324 318 317 319 319 318 316 309 302 298 297 296 298 298 302 296 295 295 296

GFSFLT1_sfc_thetae_126.txt.gz
Theta_e
335 336 336 336 336 337 340 346 347 350 354 355 355 357 359 362 362 360 357 361 358 358 360 349 353 361 369 367 369 368 368 367 363
334 337 338 335 339 340 341 348 349 350 354 355 357 355 358 360 362 360 358 359 365 363 371 361 360 364 366 366 366 366 367 363 363
332 338 340 336 341 337 344 348 347 352 355 354 356 355 356 355 356 361 361 367 367 366 369 368 368 367 365 364 366 368 367 363 362
332 334 338 341 340 339 340 344 350 352 353 355 354 355 357 356 356 358 360 358 363 363 365 368 364 365 366 365 365 364 364 364 362
333 333 332 339 338 339 340 343 347 351 353 354 354 355 359 357 359 359 355 359 361 362 360 366 366 368 367 365 364 364 363 360 359
328 333 329 338 339 337 340 340 347 350 353 354 354 356 356 357 359 358 359 355 361 362 359 362 361 364 360 357 360 358 362 361 360
329 334 336 341 341 341 340 340 345 349 353 356 355 355 354 356 357 358 358 363 362 363 363 360 361 363 360 358 359 361 360 359 361
333 333 335 338 339 341 341 345 344 347 353 356 355 354 354 355 358 360 360 360 363 364 359 362 365 362 362 361 358 347 346 362 360
333 332 335 337 336 337 339 337 341 338 347 347 353 355 354 358 360 361 361 362 362 361 361 364 361 361 359 359 339 329 331 335 347
330 330 330 331 338 336 336 336 342 334 341 354 348 353 357 359 360 358 359 359 359 358 358 360 357 357 357 345 332 325 327 333 336
325 327 327 326 335 338 341 343 342 346 350 352 352 344 345 352 356 355 357 358 358 359 359 356 356 351 350 334 323 321 324 328 335
325 326 325 326 328 333 339 339 339 340 345 348 350 347 346 345 345 347 351 351 353 355 354 347 350 349 343 332 321 315 316 324 338
324 325 326 326 325 326 329 334 339 336 335 336 338 339 340 341 343 342 346 348 350 350 343 341 331 321 321 318 310 309 311 317 328
325 324 324 324 323 322 322 327 338 334 334 332 336 338 338 336 337 336 333 331 329 326 323 320 318 315 313 311 310 310 309 311 314
324 323 322 321 318 318 320 323 329 331 326 336 336 335 335 334 335 334 330 327 326 324 321 318 316 314 312 312 310 308 307 308 311
324 322 320 319 318 318 319 319 321 321 323 326 328 327 326 326 328 332 331 328 327 325 323 319 318 317 315 313 313 311 309 309 312
325 323 320 319 317 315 316 318 320 319 321 324 325 323 322 322 323 327 328 328 329 327 325 324 323 322 319 316 316 317 318 319 320
325 326 325 323 319 317 317 318 317 319 318 319 319 319 319 316 315 317 315 310 313 320 310 312 325 324 324 323 322 320 309 308 312
326 324 321 319 320 320 320 322 323 324 323 320 319 318 318 317 317 317 314 312 309 300 301 300 301 301 315 314 306 298 297 296 297
320 322 322 322 323 323 325 326 327 329 328 325 324 317 316 316 314 315 314 314 313 309 303 299 298 297 298 299 303 296 295 295 296

GFSFLT1_sfc_thetae_129.txt.gz
Theta_e
331 332 332 333 334 334 338 340 343 345 348 347 347 347 348 349 349 349 346 346 347 348 346 349 346 352 354 353 355 354 354 354 351
328 332 330 330 334 335 338 338 342 345 348 346 347 348 350 350 349 349 347 348 349 350 350 349 348 354 352 353 355 353 353 352 351
329 332 331 332 334 336 339 341 342 346 349 346 346 347 350 351 350 349 350 349 351 349 350 351 352 352 353 353 353 354 353 351 351
328 332 334 335 337 337 339 341 344 346 348 348 347 348 349 348 348 348 351 349 350 349 350 350 351 351 351 351 353 353 351 351 352
326 332 331 336 337 337 340 341 339 345 348 348 350 349 347 347 347 346 350 348 350 350 350 353 352 353 353 353 353 353 351 351 353
328 329 327 330 334 333 334 340 341 339 347 347 348 347 349 348 348 350 349 350 350 351 350 352 353 353 351 352 352 351 351 351 351
320 327 326 328 332 333 331 337 340 341 344 348 348 347 347 348 350 349 349 350 352 352 351 349 352 353 352 350 350 352 352 351 350
328 326 328 330 334 334 335 337 340 343 343 344 347 347 345 347 349 350 350 350 349 351 351 349 349 350 351 352 346 339 341 349 349
327 328 327 330 330 333 334 337 340 339 339 340 339 333 345 347 347 348 348 347 348 349 349 350 351 348 346 337 334 330 333 338 338
326 327 326 326 327 329 335 335 338 335 335 339 336 335 342 347 347 345 347 348 346 347 346 347 345 344 342 331 325 328 330 334 333
325 326 323 322 324 328 333 337 337 338 336 335 334 336 343 342 344 344 344 344 343 342 345 342 340 340 334 325 320 321 325 330 334
323 323 323 323 327 329 330 329 335 336 338 338 336 341 339 343 343 342 341 340 339 341 340 339 338 338 330 318 310 312 316 329 333
324 323 324 323 325 325 325 326 333 334 333 336 336 339 340 340 339 337 335 337 333 330 328 323 320 315 313 312 309 311 314 322 328
323 322 321 321 321 319 321 326 332 331 331 331 336 337 336 335 334 331 330 328 326 323 321 318 316 314 313 312 312 309 310 313 316
322 319 319 320 318 317 319 322 332 326 324 333 334 334 334 334 331 330 327 324 323 321 319 317 315 313 312 312 310 310 310 310 311
319 318 317 319 318 317 318 320 325 322 323 328 328 327 327 330 329 327 326 324 322 320 319 317 316 315 313 313 313 313 312 312 314
319 318 316 316 316 316 316 317 319 319 324 325 324 323 323 326 328 327 327 327 325 324 323 321 320 317 315 313 314 316 317 317 315
321 318 318 316 314 314 313 316 318 320 321 323 320 321 319 318 319 318 313 308 312 314 308 314 323 322 320 319 318 315 309 305 302
317 315 315 315 314 314 317 316 316 318 321 322 319 318 319 318 318 317 315 312 305 300 300 299 298 300 314 307 304 298 297 296 298
317 316 315 315 317 319 320 320 321 320 319 313 311 311 312 311 312 312 310 310 310 306 301 300 298 298 299 302 299 296 295 295 295

GFSFLT1_sfc_thetae_132.txt.gz
Theta_e
330 330 325 330 332 333 336 337 339 343 342 341 343 344 344 343 346 345 341 342 341 341 344 345 346 347 351 352 352 351 349 350 347
327 329 330 329 333 333 336 338 338 342 342 341 343 344 344 343 344 347 342 344 343 343 345 347 346 349 350 349 352 350 349 350 349
325 327 329 330 334 334 336 338 340 342 345 343 344 344 344 346 345 346 346 345 344 346 347 348 345 349 350 350 350 351 348 348 348
325 328 330 333 333 335 338 339 340 343 345 344 344 345 345 346 346 346 345 346 347 348 348 349 348 349 350 348 349 350 349 349 349
325 330 331 332 334 335 337 338 338 343 344 344 345 345 346 347 348 347 345 346 346 348 347 346 349 348 349 348 349 349 349 348 352
323 327 327 328 330 332 333 337 340 344 345 345 345 345 345 345 346 345 344 346 346 347 346 348 349 349 349 349 350 349 350 349 349
326 325 328 329 327 330 332 335 340 340 344 345 345 345 345 344 344 344 344 346 348 346 346 347 347 349 349 349 349 349 349 349 350
326 325 326 327 327 329 332 331 334 340 341 342 340 339 339 339 343 345 346 347 348 349 348 348 347 349 349 347 348 346 344 347 347
326 325 326 327 328 329 329 331 334 336 339 337 341 339 337 336 335 342 346 348 347 347 346 343 343 346 346 343 336 331 337 340 340
324 324 323 324 326 326 329 333 334 336 335 338 339 338 341 338 335 335 344 343 343 344 345 344 345 342 335 327 327 328 331 335 334
321 323 319 320 322 323 327 329 333 336 334 336 336 335 335 336 334 338 344 342 340 340 338 339 338 338 327 321 317 321 322 331 335
324 324 323 324 326 324 324 327 333 334 336 334 333 333 333 333 338 342 341 338 337 337 337 337 337 329 321 317 315 319 320 330 338
324 323 323 321 322 324 323 325 329 329 331 334 332 333 333 335 336 339 337 335 333 332 329 324 321 319 316 317 316 314 315 324 332
322 321 320 321 319 319 320 322 328 327 329 329 334 336 340 338 337 333 330 328 328 324 321 318 316 314 314 314 313 311 311 314 323
320 319 318 319 319 319 319 322 327 323 326 330 331 332 330 329 329 329 326 323 322 321 319 316 314 312 311 311 311 311 310 311 312
318 316 317 318 318 317 319 321 324 323 325 329 329 329 327 326 326 325 324 321 320 319 318 317 315 314 313 312 313 313 312 313 313
317 315 315 315 317 316 317 319 321 322 324 327 329 326 326 326 325 324 325 325 323 321 320 319 317 316 314 313 314 315 317 315 313
317 316 316 316 315 314 315 319 320 322 323 325 322 321 321 321 320 317 311 305 313 315 309 317 320 317 316 315 314 313 306 304 301
317 314 313 314 315 316 315 319 320 321 323 323 322 320 321 320 319 317 315 310 305 300 300 301 302 307 311 306 306 299 296 295 295
313 312 311 311 314 318 318 317 316 319 319 318 317 317 317 316 316 316 314 312 311 307 300 298 297 298 301 301 299 296 294 294 294

GFSFLT1_sfc_thetae_135.txt.gz
Theta_e
328 325 326 330 331 333 335 335 339 340 340 340 342 343 342 342 341 340 340 340 340 341 342 342 343 344 348 346 348 348 348 348 346
325 327 327 329 331 333 336 337 338 341 340 341 341 343 343 341 343 343 341 340 341 341 342 345 345 345 346 348 346 349 348 347 347
325 327 328 326 331 332 335 338 339 340 342 341 341 343 343 343 342 346 344 342 341 342 343 344 345 345 346 348 347 348 347 346 348
323 325 327 329 331 333 335 338 338 339 342 341 342 342 342 343 342 343 345 343 342 342 344 346 345 344 346 347 345 348 348 346 346
324 328 329 330 331 332 334 336 336 337 340 342 342 344 343 342 343 343 343 344 344 346 345 346 346 346 347 346 345 345 346 346 350
321 324 325 329 329 330 334 336 336 338 341 343 344 345 343 343 343 343 342 343 344 345 346 345 346 346 346 345 345 347 347 347 347
320 324 327 325 327 328 330 334 338 340 343 346 345 344 344 343 344 344 344 343 344 344 344 344 345 346 347 347 347 348 347 347 345
324 323 323 325 326 326 328 330 332 339 340 345 346 344 343 343 344 343 343 341 344 345 344 344 345 346 346 347 347 347 345 346 346
322 323 324 324 326 326 327 331 333 334 338 340 344 343 342 340 338 340 342 342 342 344 344 344 344 343 345 343 344 333 335 341 343
320 321 320 321 322 324 325 330 332 334 334 336 339 341 341 337 336 334 337 340 341 343 343 343 341 341 342 337 328 328 331 335 335
321 321 317 318 318 320 321 324 328 330 335 334 337 339 339 339 336 335 337 336 339 340 341 341 340 338 330 325 320 321 323 332 333
320 321 318 319 324 324 324 328 327 331 333 334 335 336 336 337 339 335 334 336 339 341 337 335 337 330 324 320 316 320 321 327 334
320 322 323 321 322 323 323 325 327 326 328 328 330 333 335 336 335 336 337 340 340 338 338 329 326 322 320 320 322 319 321 329 335
321 321 321 321 321 317 320 322 326 323 328 327 329 328 335 333 334 334 333 332 331 328 325 322 320 317 317 316 317 316 316 318 329
320 318 319 320 319 319 320 322 325 326 326 328 328 328 328 334 332 328 326 324 324 323 320 318 315 313 312 313 314 313 312 312 314
318 317 318 319 319 318 319 321 326 324 325 328 326 326 325 324 323 323 322 321 319 318 317 316 315 314 313 313 314 315 312 311 312
317 316 316 316 318 317 317 320 323 324 325 326 325 323 322 321 318 319 322 322 321 320 319 317 316 315 314 315 316 315 315 313 308
316 315 316 316 315 316 317 320 321 324 324 323 322 322 321 319 318 316 312 304 309 316 311 317 318 316 316 315 313 312 308 302 301
317 314 314 314 316 317 319 320 321 322 323 323 322 321 320 319 318 315 314 312 306 301 302 304 303 305 311 308 305 298 296 295 295
312 310 312 315 317 318 317 318 318 321 322 323 322 319 319 319 317 317 315 316 315 308 301 298 299 298 300 301 297 295 294 293 295